Wetterdaten: aktuell Dienstag, 09.08.2022 21:44
Datum Zeit Temp. I. Temp. 2m Temp. 5cm Temp. Wr2 LF I. Luftf.2m LF Wr2 Luftdruck Regen Wind Richtung Richtung Taupunkt Windchill Windben
09.08.2022 21:44 25,0 C 18,7 C -0,6 C 22,2 C 53 % 64 % 51 % 1025,7 hPa 0,0 l/m 0,2 km/h (0 Bft) W 270 11,7 C 18,7 C 2,7 km/h (1 Bft)
09.08.2022 21:42 25,0 C 18,7 C -0,6 C 22,2 C 54 % 64 % 49 % 1025,7 hPa 0,0 l/m 0,0 km/h (0 Bft) NW 315 11,7 C 18,7 C 0,0 km/h (0 Bft)
09.08.2022 21:40 25,0 C 18,7 C -0,6 C 22,2 C 54 % 64 % 49 % 1025,7 hPa 0,0 l/m 0,0 km/h (0 Bft) W 270 11,7 C 18,7 C 0,0 km/h (0 Bft)
09.08.2022 21:38 25,0 C 18,8 C -0,6 C 22,2 C 53 % 63 % 49 % 1025,7 hPa 0,0 l/m 0,0 km/h (0 Bft) W 270 11,6 C 18,8 C 0,0 km/h (0 Bft)
09.08.2022 21:35 25,0 C 18,9 C -0,6 C 22,2 C 54 % 63 % 49 % 1025,7 hPa 0,0 l/m 0,0 km/h (0 Bft) W-NW 292 11,7 C 18,9 C 0,0 km/h (0 Bft)
09.08.2022 21:19 25,1 C 19,5 C -0,6 C 22,3 C 53 % 62 % 49 % 1025,5 hPa 0,0 l/m 0,3 km/h (0 Bft) W 270 12,0 C 19,5 C 0,0 km/h (0 Bft)
09.08.2022 20:19 25,2 C 20,0 C -0,6 C 22,4 C 54 % 60 % 51 % 1025,1 hPa 0,0 l/m 1,1 km/h (1 Bft) W-SW 247 12,0 C 20,0 C 8,0 km/h (2 Bft)
09.08.2022 19:19 25,6 C 19,9 C -0,6 C 23,0 C 54 % 60 % 49 % 1024,5 hPa 0,0 l/m 0,8 km/h (0 Bft) W-SW 247 11,9 C 19,9 C 0,0 km/h (0 Bft)
09.08.2022 18:19 25,6 C 20,5 C -0,6 C 23,5 C 55 % 58 % 49 % 1024,6 hPa 0,0 l/m 1,4 km/h (1 Bft) NW 315 11,9 C 20,5 C 0,0 km/h (0 Bft)
09.08.2022 17:19 25,4 C 21,7 C -0,6 C 23,6 C 55 % 55 % 49 % 1024,8 hPa 0,0 l/m 2,3 km/h (1 Bft) SW 225 12,3 C 21,7 C 5,8 km/h (2 Bft)
09.08.2022 17:07 25,3 C 22,0 C 0,0 C 23,5 C 55 % 54 % 49 % 1024,8 hPa 0,0 l/m 2,3 km/h (1 Bft) SW 225 12,3 C 22,0 C 6,8 km/h (2 Bft)
09.08.2022 17:06 25,3 C 22,0 C 0,0 C 23,5 C 55 % 54 % 49 % 1024,8 hPa 0,0 l/m 2,3 km/h (1 Bft) SW 225 12,3 C 22,0 C 6,8 km/h (2 Bft)
09.08.2022 17:02 25,3 C 22,2 C 0,0 C 23,4 C 55 % 54 % 49 % 1024,8 hPa 0,0 l/m 2,3 km/h (1 Bft) N-NO 22 12,4 C 22,2 C 0,0 km/h (0 Bft)
09.08.2022 17:00 25,3 C 22,2 C 0,0 C 23,4 C 55 % 54 % 49 % 1024,8 hPa 0,0 l/m 2,3 km/h (1 Bft) W-SW 247 12,4 C 22,2 C 5,1 km/h (1 Bft)
09.08.2022 16:58 25,2 C 22,3 C 0,0 C 23,4 C 55 % 54 % 49 % 1024,8 hPa 0,0 l/m 2,3 km/h (1 Bft) NW 315 12,5 C 22,3 C 5,6 km/h (1 Bft)
09.08.2022 16:56 25,2 C 22,4 C 0,0 C 23,3 C 55 % 53 % 49 % 1024,8 hPa 0,0 l/m 2,3 km/h (1 Bft) W-SW 247 12,3 C 22,4 C 5,6 km/h (1 Bft)
09.08.2022 16:54 25,2 C 22,4 C 0,0 C 23,3 C 55 % 53 % 49 % 1024,8 hPa 0,0 l/m 2,1 km/h (1 Bft) SW 225 12,3 C 22,4 C 4,3 km/h (1 Bft)
09.08.2022 16:52 25,2 C 22,5 C 0,0 C 23,2 C 55 % 53 % 49 % 1024,8 hPa 0,0 l/m 1,8 km/h (1 Bft) SW 225 12,4 C 22,5 C 4,1 km/h (1 Bft)
09.08.2022 16:50 25,2 C 22,6 C 0,0 C 23,2 C 55 % 53 % 49 % 1024,8 hPa 0,0 l/m 1,9 km/h (1 Bft) N-NW 337 12,5 C 22,6 C 4,8 km/h (1 Bft)
09.08.2022 16:48 25,2 C 22,6 C 0,0 C 23,2 C 55 % 53 % 49 % 1024,7 hPa 0,0 l/m 2,1 km/h (1 Bft) W-SW 247 12,5 C 22,6 C 4,8 km/h (1 Bft)
09.08.2022 16:46 25,2 C 23,1 C 0,0 C 23,1 C 55 % 51 % 49 % 1024,7 hPa 0,0 l/m 2,1 km/h (1 Bft) W-SW 247 12,4 C 23,1 C 4,8 km/h (1 Bft)
09.08.2022 16:44 25,2 C 23,1 C 0,0 C 23,0 C 55 % 51 % 50 % 1024,7 hPa 0,0 l/m 2,1 km/h (1 Bft) SW 225 12,4 C 23,1 C 4,3 km/h (1 Bft)
09.08.2022 16:42 25,2 C 23,1 C 0,0 C 23,0 C 55 % 51 % 50 % 1024,7 hPa 0,0 l/m 2,4 km/h (1 Bft) W-SW 247 12,4 C 23,1 C 4,3 km/h (1 Bft)
09.08.2022 16:40 25,2 C 23,1 C 0,0 C 23,0 C 55 % 51 % 50 % 1024,7 hPa 0,0 l/m 2,4 km/h (1 Bft) SW 225 12,4 C 23,1 C 4,1 km/h (1 Bft)
09.08.2022 16:38 25,1 C 23,1 C 0,0 C 22,9 C 55 % 51 % 51 % 1024,7 hPa 0,0 l/m 2,3 km/h (1 Bft) S-SW 202 12,4 C 23,1 C 7,0 km/h (2 Bft)
09.08.2022 16:36 25,1 C 23,2 C 0,0 C 22,9 C 55 % 51 % 51 % 1024,7 hPa 0,0 l/m 2,3 km/h (1 Bft) S 180 12,5 C 23,2 C 7,0 km/h (2 Bft)
09.08.2022 16:34 25,1 C 23,5 C 0,0 C 22,8 C 55 % 50 % 52 % 1024,7 hPa 0,0 l/m 2,4 km/h (1 Bft) S 180 12,5 C 23,5 C 7,0 km/h (2 Bft)
09.08.2022 16:32 25,1 C 23,5 C 0,0 C 22,8 C 55 % 50 % 52 % 1024,7 hPa 0,0 l/m 1,9 km/h (1 Bft) S-SW 202 12,5 C 23,5 C 5,3 km/h (1 Bft)
09.08.2022 16:30 25,1 C 23,5 C 0,0 C 22,7 C 55 % 50 % 52 % 1024,7 hPa 0,0 l/m 1,8 km/h (1 Bft) W-SW 247 12,5 C 23,5 C 6,3 km/h (2 Bft)
09.08.2022 16:28 25,0 C 23,6 C 0,0 C 22,6 C 55 % 50 % 52 % 1024,6 hPa 0,0 l/m 2,1 km/h (1 Bft) S 180 12,6 C 23,6 C 6,3 km/h (2 Bft)
09.08.2022 16:26 25,1 C 23,8 C 0,0 C 22,6 C 55 % 50 % 52 % 1024,6 hPa 0,0 l/m 2,1 km/h (1 Bft) S 180 12,7 C 23,8 C 6,3 km/h (2 Bft)
09.08.2022 16:24 25,0 C 23,8 C 0,0 C 22,5 C 55 % 49 % 52 % 1024,6 hPa 0,0 l/m 1,9 km/h (1 Bft) S 180 12,4 C 23,8 C 0,0 km/h (0 Bft)
09.08.2022 16:22 25,0 C 23,9 C 0,0 C 22,5 C 55 % 49 % 52 % 1024,6 hPa 0,0 l/m 1,9 km/h (1 Bft) S-SO 157 12,5 C 23,9 C 4,8 km/h (1 Bft)
09.08.2022 16:20 25,0 C 24,2 C 0,0 C 22,5 C 55 % 49 % 52 % 1024,6 hPa 0,0 l/m 2,4 km/h (1 Bft) SW 225 12,8 C 24,2 C 4,8 km/h (1 Bft)
09.08.2022 16:18 25,0 C 24,4 C 0,0 C 22,4 C 55 % 49 % 52 % 1024,6 hPa 0,0 l/m 2,4 km/h (1 Bft) SW 225 13,0 C 24,4 C 5,3 km/h (1 Bft)
09.08.2022 16:16 25,0 C 24,4 C 0,0 C 22,4 C 55 % 49 % 52 % 1024,6 hPa 0,0 l/m 2,4 km/h (1 Bft) W-SW 247 13,0 C 24,4 C 5,6 km/h (1 Bft)
09.08.2022 16:14 25,0 C 24,6 C 0,0 C 22,4 C 55 % 48 % 52 % 1024,6 hPa 0,0 l/m 2,4 km/h (1 Bft) W-SW 247 12,8 C 24,6 C 6,5 km/h (2 Bft)
09.08.2022 16:12 25,0 C 24,9 C 0,0 C 22,3 C 55 % 48 % 52 % 1024,6 hPa 0,0 l/m 2,4 km/h (1 Bft) W 270 13,1 C 24,9 C 6,5 km/h (2 Bft)
09.08.2022 16:10 25,0 C 24,9 C 0,0 C 22,3 C 55 % 48 % 52 % 1024,6 hPa 0,0 l/m 2,4 km/h (1 Bft) SW 225 13,1 C 24,9 C 4,1 km/h (1 Bft)
09.08.2022 16:08 25,0 C 25,0 C 0,0 C 22,3 C 55 % 47 % 52 % 1024,6 hPa 0,0 l/m 1,8 km/h (1 Bft) S-SW 202 12,9 C 25,0 C 6,5 km/h (2 Bft)
09.08.2022 16:06 24,9 C 25,5 C 0,0 C 22,3 C 55 % 47 % 52 % 1024,6 hPa 0,0 l/m 1,8 km/h (1 Bft) S-SW 202 13,3 C 25,5 C 7,0 km/h (2 Bft)
09.08.2022 16:04 24,9 C 25,5 C 0,0 C 22,2 C 55 % 47 % 52 % 1024,6 hPa 0,0 l/m 1,6 km/h (1 Bft) W-SW 247 13,3 C 25,5 C 7,0 km/h (2 Bft)
09.08.2022 16:02 24,9 C 25,8 C 0,0 C 22,2 C 55 % 47 % 52 % 1024,6 hPa 0,0 l/m 1,9 km/h (1 Bft) W-SW 247 13,6 C 25,8 C 0,0 km/h (0 Bft)
09.08.2022 16:00 24,9 C 25,8 C 0,0 C 22,2 C 55 % 47 % 52 % 1024,6 hPa 0,0 l/m 1,8 km/h (1 Bft) W 270 13,6 C 25,8 C 4,6 km/h (1 Bft)
09.08.2022 15:58 24,9 C 25,8 C 0,0 C 22,1 C 55 % 47 % 52 % 1024,6 hPa 0,0 l/m 2,1 km/h (1 Bft) S 180 13,6 C 25,8 C 4,6 km/h (1 Bft)
09.08.2022 15:56 24,8 C 26,0 C 0,0 C 22,1 C 55 % 46 % 52 % 1024,6 hPa 0,0 l/m 2,6 km/h (1 Bft) SW 225 13,5 C 26,0 C 7,2 km/h (2 Bft)
09.08.2022 15:54 24,8 C 26,3 C 0,0 C 22,0 C 55 % 46 % 52 % 1024,6 hPa 0,0 l/m 2,7 km/h (1 Bft) S 180 13,7 C 26,3 C 7,2 km/h (2 Bft)
09.08.2022 15:52 24,8 C 26,3 C 0,0 C 22,0 C 55 % 46 % 52 % 1024,6 hPa 0,0 l/m 2,6 km/h (1 Bft) SW 225 13,7 C 26,3 C 5,1 km/h (1 Bft)
09.08.2022 15:50 24,8 C 26,3 C 0,0 C 22,0 C 55 % 46 % 52 % 1024,6 hPa 0,0 l/m 2,9 km/h (1 Bft) W-SW 247 13,7 C 26,3 C 4,6 km/h (1 Bft)
09.08.2022 15:48 24,8 C 26,3 C 0,0 C 22,0 C 55 % 46 % 52 % 1024,4 hPa 0,0 l/m 3,1 km/h (1 Bft) W-SW 247 13,7 C 26,3 C 4,6 km/h (1 Bft)
09.08.2022 15:46 24,8 C 26,3 C 0,0 C 22,0 C 55 % 46 % 52 % 1024,4 hPa 0,0 l/m 3,1 km/h (1 Bft) W-SW 247 13,7 C 26,3 C 4,6 km/h (1 Bft)
09.08.2022 15:44 24,8 C 26,3 C 0,0 C 21,9 C 55 % 46 % 53 % 1024,4 hPa 0,0 l/m 3,1 km/h (1 Bft) S 180 13,7 C 26,3 C 8,7 km/h (2 Bft)
09.08.2022 15:42 24,8 C 26,4 C 0,0 C 21,9 C 55 % 45 % 53 % 1024,4 hPa 0,0 l/m 3,1 km/h (1 Bft) SO 135 13,5 C 26,4 C 10,4 km/h (2 Bft)
09.08.2022 15:40 24,8 C 26,6 C 0,0 C 21,9 C 55 % 46 % 53 % 1024,4 hPa 0,0 l/m 2,6 km/h (1 Bft) SW 225 14,0 C 26,6 C 10,4 km/h (2 Bft)
09.08.2022 15:38 24,8 C 26,6 C 0,0 C 21,9 C 55 % 46 % 53 % 1024,4 hPa 0,0 l/m 2,4 km/h (1 Bft) SW 225 14,0 C 26,6 C 7,7 km/h (2 Bft)
09.08.2022 15:36 24,7 C 26,6 C 0,0 C 21,9 C 55 % 46 % 53 % 1024,4 hPa 0,0 l/m 2,3 km/h (1 Bft) W-SW 247 14,0 C 26,6 C 4,3 km/h (1 Bft)
09.08.2022 15:34 24,7 C 26,6 C 0,0 C 21,8 C 55 % 46 % 53 % 1024,4 hPa 0,0 l/m 2,1 km/h (1 Bft) SW 225 14,0 C 26,6 C 3,4 km/h (1 Bft)
09.08.2022 15:32 24,7 C 26,7 C 0,0 C 21,8 C 55 % 47 % 53 % 1024,4 hPa 0,0 l/m 1,9 km/h (1 Bft) W 270 14,4 C 26,7 C 5,1 km/h (1 Bft)
09.08.2022 15:30 24,7 C 26,7 C 0,0 C 21,8 C 55 % 47 % 53 % 1024,4 hPa 0,0 l/m 2,1 km/h (1 Bft) SW 225 14,4 C 26,7 C 5,1 km/h (1 Bft)
09.08.2022 15:28 24,7 C 26,7 C 0,0 C 21,8 C 55 % 47 % 53 % 1024,6 hPa 0,0 l/m 1,9 km/h (1 Bft) SW 225 14,4 C 26,7 C 3,9 km/h (1 Bft)
09.08.2022 15:26 24,7 C 26,7 C 0,0 C 21,8 C 55 % 47 % 53 % 1024,6 hPa 0,0 l/m 1,9 km/h (1 Bft) SW 225 14,4 C 26,7 C 5,1 km/h (1 Bft)
09.08.2022 15:24 24,6 C 26,7 C 0,0 C 21,8 C 55 % 47 % 53 % 1024,6 hPa 0,0 l/m 2,1 km/h (1 Bft) W-SW 247 14,4 C 26,7 C 5,1 km/h (1 Bft)
09.08.2022 15:22 24,6 C 26,6 C 0,0 C 21,8 C 55 % 47 % 53 % 1024,6 hPa 0,0 l/m 2,4 km/h (1 Bft) SW 225 14,3 C 26,6 C 4,8 km/h (1 Bft)
09.08.2022 15:20 24,6 C 26,6 C 0,0 C 21,8 C 55 % 47 % 53 % 1024,6 hPa 0,0 l/m 2,6 km/h (1 Bft) W 270 14,3 C 26,6 C 3,9 km/h (1 Bft)
09.08.2022 15:18 24,6 C 26,6 C 0,0 C 21,8 C 55 % 47 % 53 % 1024,6 hPa 0,0 l/m 2,6 km/h (1 Bft) S 180 14,3 C 26,6 C 3,9 km/h (1 Bft)
09.08.2022 15:16 24,6 C 26,7 C 0,0 C 21,7 C 55 % 47 % 53 % 1024,6 hPa 0,0 l/m 2,6 km/h (1 Bft) W-SW 247 14,4 C 26,7 C 6,8 km/h (2 Bft)
09.08.2022 15:14 24,6 C 26,4 C 0,0 C 21,7 C 56 % 47 % 53 % 1024,6 hPa 0,0 l/m 2,6 km/h (1 Bft) S-SW 202 14,2 C 26,4 C 6,8 km/h (2 Bft)
09.08.2022 15:12 24,6 C 26,4 C 0,0 C 21,7 C 56 % 47 % 53 % 1024,6 hPa 0,0 l/m 2,4 km/h (1 Bft) W-SW 247 14,2 C 26,4 C 3,9 km/h (1 Bft)
09.08.2022 15:10 24,6 C 26,4 C 0,0 C 21,7 C 56 % 47 % 53 % 1024,6 hPa 0,0 l/m 1,9 km/h (1 Bft) W 270 14,2 C 26,4 C 4,8 km/h (1 Bft)
09.08.2022 15:08 24,5 C 26,3 C 0,0 C 21,7 C 56 % 47 % 53 % 1024,6 hPa 0,0 l/m 2,3 km/h (1 Bft) O-SO 112 14,1 C 26,3 C 4,8 km/h (1 Bft)
09.08.2022 15:06 24,5 C 26,3 C 0,0 C 21,7 C 56 % 46 % 53 % 1024,6 hPa 0,0 l/m 2,3 km/h (1 Bft) O-SO 112 13,7 C 26,3 C 4,8 km/h (1 Bft)
09.08.2022 15:04 24,5 C 26,5 C 0,0 C 21,7 C 56 % 46 % 53 % 1024,6 hPa 0,0 l/m 2,1 km/h (1 Bft) S-SW 202 13,9 C 26,5 C 5,3 km/h (1 Bft)
09.08.2022 15:02 24,5 C 26,7 C 0,0 C 21,7 C 56 % 47 % 53 % 1024,6 hPa 0,0 l/m 2,4 km/h (1 Bft) S 180 14,4 C 26,7 C 5,3 km/h (1 Bft)
09.08.2022 15:00 24,5 C 26,7 C 0,0 C 21,7 C 56 % 47 % 53 % 1024,6 hPa 0,0 l/m 3,1 km/h (1 Bft) S 180 14,4 C 26,7 C 4,8 km/h (1 Bft)
09.08.2022 14:58 24,4 C 26,8 C 0,0 C 21,7 C 56 % 46 % 53 % 1024,6 hPa 0,0 l/m 3,2 km/h (1 Bft) W-SW 247 14,2 C 26,8 C 8,2 km/h (2 Bft)
09.08.2022 14:56 24,4 C 26,8 C 0,0 C 21,7 C 56 % 46 % 53 % 1024,6 hPa 0,0 l/m 3,2 km/h (1 Bft) SW 225 14,2 C 26,8 C 8,2 km/h (2 Bft)
09.08.2022 14:54 24,5 C 26,9 C 0,0 C 21,7 C 56 % 47 % 53 % 1024,6 hPa 0,0 l/m 2,9 km/h (1 Bft) S-SW 202 14,6 C 26,9 C 7,0 km/h (2 Bft)
09.08.2022 14:52 24,4 C 26,9 C 0,0 C 21,7 C 56 % 47 % 53 % 1024,6 hPa 0,0 l/m 2,9 km/h (1 Bft) W-SW 247 14,6 C 26,9 C 7,5 km/h (2 Bft)
09.08.2022 14:50 24,4 C 26,9 C 0,0 C 21,7 C 56 % 47 % 53 % 1024,6 hPa 0,0 l/m 2,7 km/h (1 Bft) S 180 14,6 C 26,9 C 7,5 km/h (2 Bft)
09.08.2022 14:48 24,4 C 26,9 C 0,0 C 21,6 C 56 % 47 % 53 % 1024,6 hPa 0,0 l/m 2,4 km/h (1 Bft) W-SW 247 14,6 C 26,9 C 6,8 km/h (2 Bft)
09.08.2022 14:46 24,4 C 27,0 C 0,0 C 21,6 C 56 % 47 % 53 % 1024,6 hPa 0,0 l/m 2,4 km/h (1 Bft) W-SW 247 14,7 C 27,0 C 6,8 km/h (2 Bft)
09.08.2022 14:44 24,4 C 27,0 C 0,0 C 21,6 C 56 % 47 % 53 % 1024,6 hPa 0,0 l/m 1,9 km/h (1 Bft) SW 225 14,7 C 27,0 C 6,0 km/h (2 Bft)
09.08.2022 14:42 24,4 C 26,9 C 0,0 C 21,6 C 56 % 48 % 53 % 1024,6 hPa 0,0 l/m 1,6 km/h (1 Bft) SW 225 14,9 C 26,9 C 7,2 km/h (2 Bft)
09.08.2022 14:40 24,4 C 26,8 C 0,0 C 21,6 C 56 % 47 % 53 % 1024,6 hPa 0,0 l/m 1,6 km/h (1 Bft) W 270 14,5 C 26,8 C 7,2 km/h (2 Bft)
09.08.2022 14:38 24,2 C 26,8 C 0,0 C 21,6 C 56 % 47 % 53 % 1024,6 hPa 0,0 l/m 1,4 km/h (1 Bft) S-SW 202 14,5 C 26,8 C 5,1 km/h (1 Bft)
09.08.2022 14:36 24,4 C 26,9 C 0,0 C 21,6 C 56 % 48 % 53 % 1024,6 hPa 0,0 l/m 1,4 km/h (1 Bft) W-SW 247 14,9 C 26,9 C 3,6 km/h (1 Bft)
09.08.2022 14:34 24,4 C 26,6 C 0,0 C 21,6 C 56 % 47 % 53 % 1024,6 hPa 0,0 l/m 1,8 km/h (1 Bft) O-NO 67 14,3 C 26,6 C 0,0 km/h (0 Bft)
09.08.2022 14:32 24,4 C 26,6 C 0,0 C 21,6 C 56 % 47 % 53 % 1024,6 hPa 0,0 l/m 2,3 km/h (1 Bft) NW 315 14,3 C 26,6 C 4,3 km/h (1 Bft)
09.08.2022 14:30 24,3 C 26,6 C 0,0 C 21,6 C 56 % 47 % 53 % 1024,6 hPa 0,0 l/m 2,7 km/h (1 Bft) S-SW 202 14,3 C 26,6 C 4,3 km/h (1 Bft)
09.08.2022 14:28 24,3 C 26,6 C 0,0 C 21,6 C 56 % 46 % 53 % 1024,8 hPa 0,0 l/m 3,1 km/h (1 Bft) S-SO 157 14,0 C 26,6 C 0,0 km/h (0 Bft)
09.08.2022 14:26 24,3 C 26,6 C 0,0 C 21,5 C 56 % 47 % 53 % 1024,8 hPa 0,0 l/m 3,1 km/h (1 Bft) S-SO 157 14,3 C 26,6 C 4,6 km/h (1 Bft)
09.08.2022 14:24 24,2 C 26,5 C 0,0 C 21,5 C 56 % 47 % 53 % 1024,8 hPa 0,0 l/m 3,2 km/h (1 Bft) W-NW 292 14,3 C 26,5 C 5,8 km/h (2 Bft)
09.08.2022 14:22 24,2 C 26,5 C 0,0 C 21,5 C 56 % 47 % 53 % 1024,8 hPa 0,0 l/m 3,4 km/h (1 Bft) S-SW 202 14,3 C 26,5 C 9,2 km/h (2 Bft)
09.08.2022 14:20 24,2 C 26,6 C 0,0 C 21,5 C 56 % 46 % 53 % 1024,8 hPa 0,0 l/m 3,4 km/h (1 Bft) O-SO 112 14,0 C 26,6 C 9,2 km/h (2 Bft)
09.08.2022 14:18 24,2 C 26,8 C 0,0 C 21,5 C 56 % 48 % 53 % 1024,8 hPa 0,0 l/m 2,7 km/h (1 Bft) SO 135 14,9 C 26,8 C 6,5 km/h (2 Bft)
09.08.2022 14:16 24,2 C 26,8 C 0,0 C 21,5 C 56 % 48 % 53 % 1024,8 hPa 0,0 l/m 2,1 km/h (1 Bft) W 270 14,9 C 26,8 C 6,5 km/h (2 Bft)
09.08.2022 14:14 24,2 C 26,7 C 0,0 C 21,5 C 56 % 47 % 53 % 1024,8 hPa 0,0 l/m 2,1 km/h (1 Bft) SW 225 14,4 C 26,7 C 7,2 km/h (2 Bft)
09.08.2022 14:12 24,2 C 26,7 C 0,0 C 21,5 C 56 % 47 % 53 % 1024,8 hPa 0,0 l/m 1,9 km/h (1 Bft) SW 225 14,4 C 26,7 C 7,2 km/h (2 Bft)
09.08.2022 14:10 24,2 C 26,7 C 0,0 C 21,5 C 56 % 48 % 53 % 1024,8 hPa 0,0 l/m 2,3 km/h (1 Bft) SO 135 14,8 C 26,7 C 4,8 km/h (1 Bft)
09.08.2022 14:08 24,2 C 26,6 C 0,0 C 21,5 C 56 % 48 % 53 % 1024,6 hPa 0,0 l/m 3,2 km/h (1 Bft) S-SO 157 14,7 C 26,6 C 0,0 km/h (0 Bft)
09.08.2022 14:06 24,2 C 26,5 C 0,0 C 21,4 C 56 % 47 % 53 % 1024,6 hPa 0,0 l/m 3,2 km/h (1 Bft) S-SO 157 14,3 C 26,5 C 6,3 km/h (2 Bft)
09.08.2022 14:04 24,1 C 26,5 C 0,0 C 21,4 C 56 % 47 % 53 % 1024,6 hPa 0,0 l/m 3,2 km/h (1 Bft) SO 135 14,3 C 26,5 C 6,3 km/h (2 Bft)
09.08.2022 14:02 24,1 C 26,5 C 0,0 C 21,4 C 56 % 47 % 53 % 1024,6 hPa 0,0 l/m 3,1 km/h (1 Bft) W 270 14,3 C 26,5 C 3,4 km/h (1 Bft)
09.08.2022 14:00 24,1 C 26,5 C 0,0 C 21,4 C 56 % 47 % 53 % 1024,6 hPa 0,0 l/m 2,9 km/h (1 Bft) S 180 14,3 C 26,5 C 7,7 km/h (2 Bft)
09.08.2022 13:58 24,1 C 26,5 C 0,0 C 21,4 C 56 % 48 % 53 % 1024,6 hPa 0,0 l/m 2,7 km/h (1 Bft) W 270 14,6 C 26,5 C 8,0 km/h (2 Bft)
09.08.2022 13:56 24,1 C 26,5 C 0,0 C 21,4 C 56 % 48 % 53 % 1024,6 hPa 0,0 l/m 3,1 km/h (1 Bft) S-SW 202 14,6 C 26,5 C 8,0 km/h (2 Bft)
09.08.2022 13:54 24,1 C 26,5 C 0,0 C 21,4 C 56 % 48 % 53 % 1024,6 hPa 0,0 l/m 2,7 km/h (1 Bft) S-SW 202 14,6 C 26,5 C 5,8 km/h (2 Bft)
09.08.2022 13:52 24,1 C 26,5 C 0,0 C 21,4 C 56 % 48 % 53 % 1024,6 hPa 0,0 l/m 3,1 km/h (1 Bft) O-NO 67 14,6 C 26,5 C 5,8 km/h (2 Bft)
09.08.2022 13:50 24,1 C 26,5 C 0,0 C 21,4 C 56 % 48 % 53 % 1024,6 hPa 0,0 l/m 3,1 km/h (1 Bft) S-SO 157 14,6 C 26,5 C 7,5 km/h (2 Bft)
09.08.2022 13:48 24,1 C 26,5 C 0,0 C 21,3 C 56 % 48 % 53 % 1024,7 hPa 0,0 l/m 2,7 km/h (1 Bft) SW 225 14,6 C 26,5 C 7,5 km/h (2 Bft)
09.08.2022 13:46 24,1 C 26,5 C 0,0 C 21,3 C 56 % 48 % 53 % 1024,7 hPa 0,0 l/m 2,7 km/h (1 Bft) SW 225 14,6 C 26,5 C 7,5 km/h (2 Bft)
09.08.2022 13:44 24,0 C 26,5 C 0,0 C 21,3 C 56 % 48 % 53 % 1024,7 hPa 0,0 l/m 2,3 km/h (1 Bft) S 180 14,6 C 26,5 C 4,3 km/h (1 Bft)
09.08.2022 13:42 24,0 C 26,4 C 0,0 C 21,3 C 56 % 48 % 53 % 1024,7 hPa 0,0 l/m 2,4 km/h (1 Bft) W-SW 247 14,5 C 26,4 C 4,3 km/h (1 Bft)
09.08.2022 13:40 24,0 C 25,9 C 0,0 C 21,3 C 56 % 49 % 53 % 1024,7 hPa 0,0 l/m 2,3 km/h (1 Bft) W 270 14,4 C 25,9 C 5,6 km/h (1 Bft)
09.08.2022 13:38 24,0 C 25,9 C 0,0 C 21,3 C 56 % 49 % 53 % 1024,7 hPa 0,0 l/m 2,1 km/h (1 Bft) W-SW 247 14,4 C 25,9 C 6,0 km/h (2 Bft)
09.08.2022 13:36 24,0 C 25,7 C 0,0 C 21,3 C 56 % 50 % 53 % 1024,7 hPa 0,0 l/m 2,3 km/h (1 Bft) SW 225 14,5 C 25,7 C 6,0 km/h (2 Bft)
09.08.2022 13:34 24,0 C 25,7 C 0,0 C 21,2 C 56 % 49 % 53 % 1024,7 hPa 0,0 l/m 2,4 km/h (1 Bft) W-SW 247 14,2 C 25,7 C 3,9 km/h (1 Bft)
09.08.2022 13:32 24,0 C 25,8 C 0,0 C 21,2 C 56 % 50 % 53 % 1024,7 hPa 0,0 l/m 2,4 km/h (1 Bft) W-SW 247 14,6 C 25,8 C 6,0 km/h (2 Bft)
09.08.2022 13:30 24,0 C 25,8 C 0,0 C 21,2 C 56 % 50 % 53 % 1024,7 hPa 0,0 l/m 2,6 km/h (1 Bft) SO 135 14,6 C 25,8 C 10,1 km/h (2 Bft)
09.08.2022 13:28 24,0 C 26,3 C 0,0 C 21,2 C 56 % 48 % 53 % 1024,5 hPa 0,0 l/m 2,3 km/h (1 Bft) SW 225 14,4 C 26,3 C 10,1 km/h (2 Bft)
09.08.2022 13:26 24,0 C 26,4 C 0,0 C 21,2 C 56 % 48 % 53 % 1024,5 hPa 0,0 l/m 2,3 km/h (1 Bft) SW 225 14,5 C 26,4 C 10,1 km/h (2 Bft)
09.08.2022 13:24 24,0 C 26,3 C 0,0 C 21,2 C 56 % 48 % 53 % 1024,5 hPa 0,0 l/m 2,3 km/h (1 Bft) W-SW 247 14,4 C 26,3 C 4,6 km/h (1 Bft)
09.08.2022 13:22 24,0 C 25,7 C 0,0 C 21,2 C 56 % 50 % 53 % 1024,5 hPa 0,0 l/m 2,3 km/h (1 Bft) W-SW 247 14,5 C 25,7 C 6,3 km/h (2 Bft)
09.08.2022 13:20 24,0 C 25,7 C 0,0 C 21,1 C 56 % 50 % 53 % 1024,5 hPa 0,0 l/m 2,1 km/h (1 Bft) S-SW 202 14,5 C 25,7 C 6,3 km/h (2 Bft)
09.08.2022 13:18 24,0 C 25,7 C 0,0 C 21,1 C 56 % 50 % 53 % 1024,5 hPa 0,0 l/m 2,1 km/h (1 Bft) S-SW 202 14,5 C 25,7 C 5,1 km/h (1 Bft)
09.08.2022 13:16 24,0 C 25,7 C 0,0 C 21,1 C 56 % 50 % 53 % 1024,5 hPa 0,0 l/m 2,3 km/h (1 Bft) W-SW 247 14,5 C 25,7 C 2,7 km/h (1 Bft)
09.08.2022 13:14 24,0 C 25,7 C 0,0 C 21,1 C 56 % 49 % 53 % 1024,5 hPa 0,0 l/m 2,3 km/h (1 Bft) SW 225 14,2 C 25,7 C 6,0 km/h (2 Bft)
09.08.2022 13:12 23,9 C 25,9 C 0,0 C 21,1 C 56 % 49 % 53 % 1024,5 hPa 0,0 l/m 1,9 km/h (1 Bft) W-SW 247 14,4 C 25,9 C 6,0 km/h (2 Bft)
09.08.2022 13:10 23,9 C 26,0 C 0,0 C 21,1 C 56 % 49 % 53 % 1024,5 hPa 0,0 l/m 1,6 km/h (1 Bft) W-SW 247 14,4 C 26,0 C 5,6 km/h (1 Bft)
09.08.2022 13:08 23,9 C 26,0 C 0,0 C 21,0 C 56 % 49 % 53 % 1024,5 hPa 0,0 l/m 1,8 km/h (1 Bft) SW 225 14,4 C 26,0 C 4,1 km/h (1 Bft)
09.08.2022 13:06 23,9 C 26,0 C 0,0 C 21,0 C 56 % 49 % 53 % 1024,5 hPa 0,0 l/m 1,8 km/h (1 Bft) SW 225 14,4 C 26,0 C 4,1 km/h (1 Bft)
09.08.2022 13:04 23,9 C 25,7 C 0,0 C 21,0 C 56 % 51 % 53 % 1024,5 hPa 0,0 l/m 1,8 km/h (1 Bft) W-SW 247 14,8 C 25,7 C 0,0 km/h (0 Bft)
09.08.2022 13:02 23,9 C 25,6 C 0,0 C 21,0 C 56 % 50 % 53 % 1024,5 hPa 0,0 l/m 1,9 km/h (1 Bft) NW 315 14,4 C 25,6 C 0,0 km/h (0 Bft)
09.08.2022 13:00 23,9 C 25,6 C 0,0 C 21,0 C 56 % 50 % 53 % 1024,5 hPa 0,0 l/m 1,9 km/h (1 Bft) SW 225 14,4 C 25,6 C 7,2 km/h (2 Bft)
09.08.2022 12:58 23,9 C 26,1 C 0,0 C 20,9 C 56 % 48 % 53 % 1024,5 hPa 0,0 l/m 1,8 km/h (1 Bft) N-NO 22 14,2 C 26,1 C 7,2 km/h (2 Bft)
09.08.2022 12:56 23,9 C 26,7 C 0,0 C 20,9 C 55 % 49 % 53 % 1024,5 hPa 0,0 l/m 1,0 km/h (0 Bft) O 90 15,1 C 26,7 C 5,8 km/h (2 Bft)
09.08.2022 12:54 23,9 C 26,7 C 0,0 C 20,9 C 55 % 49 % 53 % 1024,5 hPa 0,0 l/m 0,8 km/h (0 Bft) S-SW 202 15,1 C 26,7 C 5,8 km/h (2 Bft)
09.08.2022 12:52 23,8 C 26,4 C 0,0 C 20,9 C 55 % 50 % 53 % 1024,5 hPa 0,0 l/m 1,0 km/h (0 Bft) S 180 15,1 C 26,4 C 4,1 km/h (1 Bft)
09.08.2022 12:50 23,8 C 26,4 C 0,0 C 20,9 C 55 % 50 % 53 % 1024,5 hPa 0,0 l/m 1,4 km/h (1 Bft) S-SO 157 15,1 C 26,4 C 0,0 km/h (0 Bft)
09.08.2022 12:48 23,8 C 25,8 C 0,0 C 20,9 C 55 % 51 % 53 % 1024,6 hPa 0,0 l/m 3,2 km/h (1 Bft) N-NW 337 14,9 C 25,8 C 0,0 km/h (0 Bft)
09.08.2022 12:46 23,8 C 25,8 C 0,0 C 20,9 C 55 % 51 % 53 % 1024,6 hPa 0,0 l/m 3,2 km/h (1 Bft) N-NW 337 14,9 C 25,8 C 2,7 km/h (1 Bft)
09.08.2022 12:44 23,8 C 25,4 C 0,0 C 20,9 C 55 % 49 % 53 % 1024,6 hPa 0,0 l/m 3,9 km/h (1 Bft) NW 315 13,9 C 25,4 C 10,1 km/h (2 Bft)
09.08.2022 12:42 23,8 C 25,4 C 0,0 C 20,9 C 55 % 49 % 53 % 1024,6 hPa 0,0 l/m 4,0 km/h (1 Bft) SW 225 13,9 C 25,4 C 10,1 km/h (2 Bft)
09.08.2022 12:40 23,8 C 25,5 C 0,0 C 20,9 C 55 % 49 % 53 % 1024,6 hPa 0,0 l/m 4,0 km/h (1 Bft) W-SW 247 14,0 C 25,5 C 15,0 km/h (3 Bft)
09.08.2022 12:38 23,8 C 25,9 C 0,0 C 20,9 C 55 % 47 % 53 % 1024,6 hPa 0,0 l/m 4,2 km/h (1 Bft) W-SW 247 13,7 C 25,9 C 15,0 km/h (3 Bft)
09.08.2022 12:36 23,8 C 26,0 C 0,0 C 20,9 C 55 % 47 % 53 % 1024,6 hPa 0,0 l/m 3,7 km/h (1 Bft) S-SO 157 13,8 C 26,0 C 12,6 km/h (3 Bft)
09.08.2022 12:34 23,8 C 26,1 C 0,0 C 20,8 C 55 % 48 % 53 % 1024,6 hPa 0,0 l/m 3,4 km/h (1 Bft) W-SW 247 14,2 C 26,1 C 10,4 km/h (2 Bft)
09.08.2022 12:32 23,8 C 26,1 C 0,0 C 20,8 C 55 % 48 % 53 % 1024,6 hPa 0,0 l/m 3,9 km/h (1 Bft) SW 225 14,2 C 26,1 C 10,4 km/h (2 Bft)
09.08.2022 12:30 23,8 C 26,0 C 0,0 C 20,8 C 55 % 48 % 53 % 1024,6 hPa 0,0 l/m 3,7 km/h (1 Bft) S-SW 202 14,1 C 26,0 C 9,4 km/h (2 Bft)
09.08.2022 12:28 23,7 C 26,0 C 0,0 C 20,8 C 55 % 48 % 53 % 1024,8 hPa 0,0 l/m 3,9 km/h (1 Bft) O-SO 112 14,1 C 26,0 C 9,4 km/h (2 Bft)
09.08.2022 12:26 23,7 C 26,0 C 0,0 C 20,8 C 55 % 48 % 53 % 1024,8 hPa 0,0 l/m 3,9 km/h (1 Bft) O-SO 112 14,1 C 26,0 C 9,4 km/h (2 Bft)
09.08.2022 12:24 23,7 C 25,9 C 0,0 C 20,8 C 55 % 49 % 53 % 1024,8 hPa 0,0 l/m 3,5 km/h (1 Bft) S 180 14,4 C 25,9 C 8,0 km/h (2 Bft)
09.08.2022 12:22 23,7 C 25,9 C 0,0 C 20,8 C 56 % 50 % 53 % 1024,8 hPa 0,0 l/m 3,5 km/h (1 Bft) SW 225 14,7 C 25,9 C 15,7 km/h (3 Bft)
09.08.2022 12:20 23,7 C 25,9 C 0,0 C 20,8 C 56 % 50 % 53 % 1024,8 hPa 0,0 l/m 2,9 km/h (1 Bft) S 180 14,7 C 25,9 C 10,1 km/h (2 Bft)
09.08.2022 12:18 23,6 C 26,0 C 0,0 C 20,7 C 56 % 48 % 53 % 1024,8 hPa 0,0 l/m 2,4 km/h (1 Bft) S-SO 157 14,1 C 26,0 C 12,6 km/h (3 Bft)
09.08.2022 12:16 23,6 C 26,0 C 0,0 C 20,7 C 56 % 49 % 53 % 1024,8 hPa 0,0 l/m 2,1 km/h (1 Bft) SO 135 14,4 C 26,0 C 12,6 km/h (3 Bft)
09.08.2022 12:14 23,6 C 26,1 C 0,0 C 20,7 C 56 % 49 % 53 % 1024,8 hPa 0,0 l/m 1,9 km/h (1 Bft) NW 315 14,5 C 26,1 C 15,7 km/h (3 Bft)
09.08.2022 12:12 23,6 C 25,8 C 0,0 C 20,7 C 56 % 53 % 53 % 1024,8 hPa 0,0 l/m 1,4 km/h (1 Bft) N-NW 337 15,5 C 25,8 C 15,7 km/h (3 Bft)
09.08.2022 12:10 23,6 C 25,8 C 0,0 C 20,7 C 56 % 53 % 53 % 1024,8 hPa 0,0 l/m 2,1 km/h (1 Bft) O-SO 112 15,5 C 25,8 C 5,3 km/h (1 Bft)
09.08.2022 12:08 23,6 C 25,8 C 0,0 C 20,7 C 56 % 53 % 53 % 1024,7 hPa 0,0 l/m 2,1 km/h (1 Bft) O-SO 112 15,5 C 25,8 C 5,3 km/h (1 Bft)
09.08.2022 12:06 23,6 C 25,8 C 0,0 C 20,7 C 56 % 53 % 53 % 1024,7 hPa 0,0 l/m 2,1 km/h (1 Bft) O-SO 112 15,5 C 25,8 C 5,3 km/h (1 Bft)
09.08.2022 12:04 23,6 C 25,8 C 0,0 C 20,7 C 56 % 53 % 53 % 1024,7 hPa 0,0 l/m 2,1 km/h (1 Bft) O-SO 112 15,5 C 25,8 C 5,3 km/h (1 Bft)
09.08.2022 12:02 23,6 C 25,8 C 0,0 C 20,7 C 56 % 53 % 53 % 1024,7 hPa 0,0 l/m 2,1 km/h (1 Bft) O-SO 112 15,5 C 25,8 C 5,3 km/h (1 Bft)
09.08.2022 12:00 23,6 C 25,8 C 0,0 C 20,7 C 56 % 53 % 53 % 1024,7 hPa 0,0 l/m 2,1 km/h (1 Bft) O-NO 67 15,5 C 25,8 C 2,9 km/h (1 Bft)
09.08.2022 11:58 23,6 C 25,8 C 0,0 C 20,7 C 56 % 53 % 53 % 1024,7 hPa 0,0 l/m 2,3 km/h (1 Bft) W-NW 292 15,5 C 25,8 C 2,9 km/h (1 Bft)
09.08.2022 11:56 23,6 C 25,8 C 0,0 C 20,7 C 56 % 53 % 53 % 1024,7 hPa 0,0 l/m 2,4 km/h (1 Bft) W-NW 292 15,5 C 25,8 C 2,7 km/h (1 Bft)
09.08.2022 11:54 23,6 C 25,9 C 0,0 C 20,6 C 56 % 53 % 53 % 1024,7 hPa 0,0 l/m 2,1 km/h (1 Bft) S 180 15,6 C 25,9 C 5,8 km/h (2 Bft)
09.08.2022 11:52 23,6 C 25,7 C 0,0 C 20,6 C 56 % 54 % 53 % 1024,7 hPa 0,0 l/m 1,9 km/h (1 Bft) S 180 15,7 C 25,7 C 7,2 km/h (2 Bft)
09.08.2022 11:50 23,6 C 25,7 C 0,0 C 20,6 C 56 % 54 % 53 % 1024,7 hPa 0,0 l/m 1,9 km/h (1 Bft) W-SW 247 15,7 C 25,7 C 7,2 km/h (2 Bft)
09.08.2022 11:48 23,6 C 25,5 C 0,0 C 20,6 C 56 % 55 % 53 % 1024,6 hPa 0,0 l/m 1,4 km/h (1 Bft) SO 135 15,8 C 25,5 C 0,0 km/h (0 Bft)
09.08.2022 11:46 23,6 C 25,5 C 0,0 C 20,6 C 56 % 55 % 53 % 1024,6 hPa 0,0 l/m 1,4 km/h (1 Bft) SO 135 15,8 C 25,5 C 0,0 km/h (0 Bft)
09.08.2022 11:44 23,6 C 25,1 C 0,0 C 20,6 C 56 % 55 % 53 % 1024,6 hPa 0,0 l/m 1,6 km/h (1 Bft) SO 135 15,4 C 25,1 C 2,7 km/h (1 Bft)
09.08.2022 11:42 23,6 C 25,1 C 0,0 C 20,6 C 56 % 55 % 53 % 1024,6 hPa 0,0 l/m 1,8 km/h (1 Bft) O-NO 67 15,4 C 25,1 C 4,8 km/h (1 Bft)
09.08.2022 11:40 23,5 C 25,1 C 0,0 C 20,6 C 56 % 55 % 53 % 1024,6 hPa 0,0 l/m 1,9 km/h (1 Bft) W-SW 247 15,4 C 25,1 C 4,8 km/h (1 Bft)
09.08.2022 11:38 23,5 C 24,6 C 0,0 C 20,6 C 56 % 56 % 53 % 1024,6 hPa 0,0 l/m 2,1 km/h (1 Bft) W-SW 247 15,2 C 24,6 C 2,9 km/h (1 Bft)
09.08.2022 11:36 23,5 C 24,6 C 0,0 C 20,6 C 56 % 56 % 53 % 1024,6 hPa 0,0 l/m 2,4 km/h (1 Bft) SO 135 15,2 C 24,6 C 3,1 km/h (1 Bft)
09.08.2022 11:34 23,5 C 24,6 C 0,0 C 20,6 C 56 % 56 % 53 % 1024,6 hPa 0,0 l/m 2,3 km/h (1 Bft) S-SO 157 15,2 C 24,6 C 3,4 km/h (1 Bft)
09.08.2022 11:32 23,5 C 24,6 C 0,0 C 20,6 C 56 % 56 % 53 % 1024,6 hPa 0,0 l/m 2,4 km/h (1 Bft) S-SW 202 15,2 C 24,6 C 5,3 km/h (1 Bft)
09.08.2022 11:30 23,5 C 24,8 C 0,0 C 20,5 C 56 % 57 % 53 % 1024,6 hPa 0,0 l/m 2,6 km/h (1 Bft) O-SO 112 15,7 C 24,8 C 5,3 km/h (1 Bft)
09.08.2022 11:28 23,5 C 24,8 C 0,0 C 20,5 C 56 % 57 % 53 % 1024,8 hPa 0,0 l/m 2,4 km/h (1 Bft) O-SO 112 15,7 C 24,8 C 5,3 km/h (1 Bft)
09.08.2022 11:26 23,4 C 24,8 C 0,0 C 20,5 C 56 % 58 % 53 % 1024,8 hPa 0,0 l/m 2,4 km/h (1 Bft) O-SO 112 16,0 C 24,8 C 5,8 km/h (2 Bft)
09.08.2022 11:24 23,4 C 24,7 C 0,0 C 20,5 C 56 % 58 % 53 % 1024,8 hPa 0,0 l/m 2,6 km/h (1 Bft) S-SW 202 15,9 C 24,7 C 5,8 km/h (2 Bft)
09.08.2022 11:22 23,5 C 24,3 C 0,0 C 20,5 C 56 % 59 % 53 % 1024,8 hPa 0,0 l/m 2,6 km/h (1 Bft) S-SW 202 15,8 C 24,3 C 5,1 km/h (1 Bft)
09.08.2022 11:20 23,4 C 24,2 C 0,0 C 20,5 C 56 % 59 % 53 % 1024,8 hPa 0,0 l/m 2,6 km/h (1 Bft) O-NO 67 15,7 C 24,2 C 5,1 km/h (1 Bft)
09.08.2022 11:18 23,4 C 23,8 C 0,0 C 20,5 C 56 % 59 % 53 % 1024,8 hPa 0,0 l/m 2,7 km/h (1 Bft) N 360 15,3 C 23,8 C 6,5 km/h (2 Bft)
09.08.2022 11:16 23,4 C 23,8 C 0,0 C 20,5 C 56 % 59 % 53 % 1024,8 hPa 0,0 l/m 2,6 km/h (1 Bft) N-NW 337 15,3 C 23,8 C 6,5 km/h (2 Bft)
09.08.2022 11:14 23,4 C 23,8 C 0,0 C 20,5 C 56 % 59 % 53 % 1024,8 hPa 0,0 l/m 2,1 km/h (1 Bft) NW 315 15,3 C 23,8 C 9,2 km/h (2 Bft)
09.08.2022 11:12 23,4 C 24,3 C 0,0 C 20,5 C 56 % 60 % 53 % 1024,8 hPa 0,0 l/m 2,1 km/h (1 Bft) N-NO 22 16,0 C 24,3 C 9,2 km/h (2 Bft)
09.08.2022 11:10 23,4 C 24,3 C 0,0 C 20,5 C 56 % 60 % 53 % 1024,8 hPa 0,0 l/m 1,8 km/h (1 Bft) O-NO 67 16,0 C 24,3 C 3,9 km/h (1 Bft)
09.08.2022 11:08 23,2 C 24,2 C 0,0 C 20,5 C 56 % 60 % 53 % 1024,6 hPa 0,0 l/m 1,6 km/h (1 Bft) W-SW 247 15,9 C 24,2 C 0,0 km/h (0 Bft)
09.08.2022 11:06 23,2 C 24,0 C 0,0 C 20,5 C 56 % 60 % 53 % 1024,6 hPa 0,0 l/m 1,6 km/h (1 Bft) W-SW 247 15,7 C 24,0 C 5,3 km/h (1 Bft)
09.08.2022 11:04 23,2 C 23,8 C 0,0 C 20,4 C 56 % 61 % 53 % 1024,6 hPa 0,0 l/m 1,9 km/h (1 Bft) O-SO 112 15,8 C 23,8 C 5,3 km/h (1 Bft)
09.08.2022 11:02 23,2 C 23,8 C 0,0 C 20,4 C 56 % 61 % 53 % 1024,6 hPa 0,0 l/m 2,1 km/h (1 Bft) O-SO 112 15,8 C 23,8 C 5,6 km/h (1 Bft)
09.08.2022 11:00 23,2 C 23,6 C 0,0 C 20,4 C 56 % 60 % 53 % 1024,6 hPa 0,0 l/m 2,1 km/h (1 Bft) S 180 15,4 C 23,6 C 5,6 km/h (1 Bft)
09.08.2022 10:58 23,3 C 23,6 C 0,0 C 20,4 C 56 % 60 % 53 % 1024,6 hPa 0,0 l/m 1,9 km/h (1 Bft) O-SO 112 15,4 C 23,6 C 4,1 km/h (1 Bft)
09.08.2022 10:56 23,2 C 24,0 C 0,0 C 20,4 C 56 % 62 % 53 % 1024,6 hPa 0,0 l/m 1,8 km/h (1 Bft) N-NO 22 16,3 C 24,0 C 4,1 km/h (1 Bft)
09.08.2022 10:54 23,2 C 24,0 C 0,0 C 20,4 C 56 % 62 % 53 % 1024,6 hPa 0,0 l/m 1,3 km/h (1 Bft) NW 315 16,3 C 24,0 C 5,1 km/h (1 Bft)
09.08.2022 10:52 23,3 C 24,0 C 0,0 C 20,4 C 56 % 62 % 53 % 1024,6 hPa 0,0 l/m 1,1 km/h (1 Bft) O-NO 67 16,3 C 24,0 C 5,1 km/h (1 Bft)
09.08.2022 10:50 23,2 C 23,8 C 0,0 C 20,4 C 56 % 63 % 53 % 1024,6 hPa 0,0 l/m 1,4 km/h (1 Bft) SO 135 16,3 C 23,8 C 5,3 km/h (1 Bft)
09.08.2022 10:48 23,2 C 23,6 C 0,0 C 20,4 C 56 % 63 % 53 % 1024,7 hPa 0,0 l/m 2,3 km/h (1 Bft) W-SW 247 16,1 C 23,6 C 5,3 km/h (1 Bft)
09.08.2022 10:46 23,2 C 23,4 C 0,0 C 20,4 C 56 % 63 % 53 % 1024,7 hPa 0,0 l/m 2,3 km/h (1 Bft) W-SW 247 15,9 C 23,4 C 5,3 km/h (1 Bft)
09.08.2022 10:44 23,2 C 22,8 C 0,0 C 20,4 C 55 % 64 % 53 % 1024,7 hPa 0,0 l/m 2,6 km/h (1 Bft) W 270 15,6 C 22,8 C 3,6 km/h (1 Bft)
09.08.2022 10:42 23,2 C 22,8 C 0,0 C 20,4 C 56 % 64 % 53 % 1024,7 hPa 0,0 l/m 3,1 km/h (1 Bft) SO 135 15,6 C 22,8 C 6,8 km/h (2 Bft)
09.08.2022 10:40 23,2 C 22,8 C 0,0 C 20,4 C 56 % 64 % 53 % 1024,7 hPa 0,0 l/m 2,9 km/h (1 Bft) S-SW 202 15,6 C 22,8 C 6,8 km/h (2 Bft)
09.08.2022 10:38 23,1 C 22,8 C 0,0 C 20,4 C 56 % 63 % 53 % 1024,7 hPa 0,0 l/m 2,9 km/h (1 Bft) NO 45 15,4 C 22,8 C 7,0 km/h (2 Bft)
09.08.2022 10:36 23,1 C 22,8 C 0,0 C 20,4 C 56 % 63 % 53 % 1024,7 hPa 0,0 l/m 2,7 km/h (1 Bft) N-NW 337 15,4 C 22,8 C 7,0 km/h (2 Bft)
09.08.2022 10:34 23,1 C 22,9 C 0,0 C 20,3 C 56 % 64 % 53 % 1024,7 hPa 0,0 l/m 3,1 km/h (1 Bft) O-SO 112 15,7 C 22,9 C 5,1 km/h (1 Bft)
09.08.2022 10:32 23,1 C 23,0 C 0,0 C 20,3 C 55 % 64 % 53 % 1024,7 hPa 0,0 l/m 2,7 km/h (1 Bft) NO 45 15,8 C 23,0 C 4,1 km/h (1 Bft)
09.08.2022 10:30 23,1 C 22,9 C 0,0 C 20,3 C 55 % 65 % 53 % 1024,7 hPa 0,0 l/m 2,9 km/h (1 Bft) S 180 16,0 C 22,9 C 3,1 km/h (1 Bft)
09.08.2022 10:28 23,0 C 22,9 C 0,0 C 20,3 C 55 % 65 % 54 % 1024,7 hPa 0,0 l/m 2,6 km/h (1 Bft) W-SW 247 16,0 C 22,9 C 0,0 km/h (0 Bft)
09.08.2022 10:26 23,0 C 22,9 C 0,0 C 20,3 C 56 % 65 % 54 % 1024,7 hPa 0,0 l/m 2,6 km/h (1 Bft) W-SW 247 16,0 C 22,9 C 8,2 km/h (2 Bft)
09.08.2022 10:24 23,0 C 22,9 C 0,0 C 20,3 C 56 % 65 % 54 % 1024,7 hPa 0,0 l/m 2,6 km/h (1 Bft) S 180 16,0 C 22,9 C 8,2 km/h (2 Bft)
09.08.2022 10:22 22,9 C 22,9 C 0,0 C 20,3 C 56 % 65 % 54 % 1024,7 hPa 0,0 l/m 2,3 km/h (1 Bft) W-SW 247 16,0 C 22,9 C 8,0 km/h (2 Bft)
09.08.2022 10:20 23,0 C 22,9 C 0,0 C 20,3 C 56 % 65 % 54 % 1024,7 hPa 0,0 l/m 1,9 km/h (1 Bft) SW 225 16,0 C 22,9 C 8,0 km/h (2 Bft)
09.08.2022 10:18 22,9 C 22,8 C 0,0 C 20,3 C 56 % 66 % 54 % 1024,7 hPa 0,0 l/m 1,6 km/h (1 Bft) S-SW 202 16,1 C 22,8 C 6,5 km/h (2 Bft)
09.08.2022 10:16 22,9 C 22,7 C 0,0 C 20,3 C 56 % 66 % 54 % 1024,7 hPa 0,0 l/m 1,8 km/h (1 Bft) W-SW 247 16,0 C 22,7 C 8,7 km/h (2 Bft)
09.08.2022 10:14 22,9 C 22,7 C 0,0 C 20,3 C 56 % 66 % 54 % 1024,7 hPa 0,0 l/m 1,3 km/h (1 Bft) W 270 16,0 C 22,7 C 8,7 km/h (2 Bft)
09.08.2022 10:12 22,8 C 22,6 C 0,0 C 20,3 C 56 % 67 % 54 % 1024,7 hPa 0,0 l/m 1,1 km/h (1 Bft) O-NO 67 16,2 C 22,6 C 0,0 km/h (0 Bft)
09.08.2022 10:10 22,9 C 22,3 C 0,0 C 20,2 C 56 % 66 % 54 % 1024,7 hPa 0,0 l/m 1,9 km/h (1 Bft) S 180 15,6 C 22,3 C 2,9 km/h (1 Bft)
09.08.2022 10:08 22,8 C 21,1 C 0,0 C 20,2 C 56 % 67 % 54 % 1024,7 hPa 0,0 l/m 1,9 km/h (1 Bft) S 180 14,7 C 21,1 C 2,9 km/h (1 Bft)
09.08.2022 10:06 22,8 C 21,1 C 0,0 C 20,2 C 56 % 67 % 54 % 1024,7 hPa 0,0 l/m 1,9 km/h (1 Bft) S 180 14,7 C 21,1 C 2,9 km/h (1 Bft)
09.08.2022 10:04 22,8 C 21,1 C 0,0 C 20,2 C 56 % 67 % 54 % 1024,7 hPa 0,0 l/m 2,3 km/h (1 Bft) SW 225 14,7 C 21,1 C 6,5 km/h (2 Bft)
09.08.2022 10:02 22,8 C 21,1 C 0,0 C 20,2 C 56 % 67 % 54 % 1024,7 hPa 0,0 l/m 2,9 km/h (1 Bft) W 270 14,7 C 21,1 C 13,0 km/h (3 Bft)
09.08.2022 10:00 22,8 C 21,1 C 0,0 C 20,2 C 56 % 67 % 54 % 1024,7 hPa 0,0 l/m 2,9 km/h (1 Bft) SW 225 14,7 C 21,1 C 13,0 km/h (3 Bft)
09.08.2022 09:58 22,7 C 21,0 C 0,0 C 20,2 C 56 % 67 % 54 % 1024,7 hPa 0,0 l/m 2,6 km/h (1 Bft) S 180 14,6 C 21,0 C 3,6 km/h (1 Bft)
09.08.2022 09:56 22,7 C 20,5 C 0,0 C 20,2 C 56 % 67 % 54 % 1024,7 hPa 0,0 l/m 3,2 km/h (1 Bft) S-SW 202 14,2 C 20,5 C 5,3 km/h (1 Bft)
09.08.2022 09:54 22,7 C 20,4 C 0,0 C 20,1 C 56 % 66 % 54 % 1024,7 hPa 0,0 l/m 3,5 km/h (1 Bft) W-SW 247 13,8 C 20,4 C 5,8 km/h (2 Bft)
09.08.2022 09:52 22,6 C 20,4 C 0,0 C 20,1 C 56 % 66 % 54 % 1024,7 hPa 0,0 l/m 3,5 km/h (1 Bft) S-SO 157 13,8 C 20,4 C 13,3 km/h (3 Bft)
09.08.2022 09:50 22,6 C 20,5 C 0,0 C 20,1 C 56 % 66 % 54 % 1024,7 hPa 0,0 l/m 3,4 km/h (1 Bft) W-SW 247 13,9 C 20,5 C 8,2 km/h (2 Bft)
09.08.2022 09:48 22,6 C 20,5 C 0,0 C 20,1 C 56 % 66 % 54 % 1024,4 hPa 0,0 l/m 2,4 km/h (1 Bft) O 90 13,9 C 20,5 C 8,2 km/h (2 Bft)
09.08.2022 09:46 22,6 C 20,7 C 0,0 C 20,1 C 56 % 66 % 54 % 1024,4 hPa 0,0 l/m 2,4 km/h (1 Bft) O 90 14,1 C 20,7 C 8,2 km/h (2 Bft)
09.08.2022 09:44 22,5 C 20,7 C 0,0 C 20,1 C 56 % 66 % 54 % 1024,4 hPa 0,0 l/m 2,3 km/h (1 Bft) O 90 14,1 C 20,7 C 7,7 km/h (2 Bft)
09.08.2022 09:42 22,5 C 21,0 C 0,0 C 20,1 C 56 % 67 % 54 % 1024,4 hPa 0,0 l/m 1,8 km/h (1 Bft) S 180 14,6 C 21,0 C 7,7 km/h (2 Bft)
09.08.2022 09:40 22,5 C 21,0 C 0,0 C 20,1 C 56 % 67 % 54 % 1024,4 hPa 0,0 l/m 1,4 km/h (1 Bft) O-SO 112 14,6 C 21,0 C 5,1 km/h (1 Bft)
09.08.2022 09:38 22,4 C 20,9 C 0,0 C 20,0 C 56 % 67 % 54 % 1024,4 hPa 0,0 l/m 1,1 km/h (1 Bft) S-SO 157 14,5 C 20,9 C 6,3 km/h (2 Bft)
09.08.2022 09:36 22,4 C 20,9 C 0,0 C 20,0 C 56 % 67 % 54 % 1024,4 hPa 0,0 l/m 1,0 km/h (0 Bft) O-NO 67 14,5 C 20,9 C 6,3 km/h (2 Bft)
09.08.2022 09:34 22,4 C 20,8 C 0,0 C 20,0 C 56 % 67 % 54 % 1024,4 hPa 0,0 l/m 0,8 km/h (0 Bft) S-SO 157 14,4 C 20,8 C 4,1 km/h (1 Bft)
09.08.2022 09:32 22,4 C 20,7 C 0,0 C 20,0 C 56 % 67 % 54 % 1024,4 hPa 0,0 l/m 1,1 km/h (1 Bft) SO 135 14,3 C 20,7 C 5,1 km/h (1 Bft)
09.08.2022 09:30 22,4 C 20,8 C 0,0 C 20,0 C 56 % 68 % 54 % 1024,4 hPa 0,0 l/m 1,4 km/h (1 Bft) SO 135 14,7 C 20,8 C 5,1 km/h (1 Bft)
09.08.2022 09:28 22,3 C 20,7 C 0,0 C 20,0 C 56 % 68 % 54 % 1024,1 hPa 0,0 l/m 1,6 km/h (1 Bft) SO 135 14,6 C 20,7 C 0,0 km/h (0 Bft)
09.08.2022 09:26 22,2 C 20,6 C 0,0 C 20,0 C 56 % 68 % 54 % 1024,1 hPa 0,0 l/m 1,6 km/h (1 Bft) SO 135 14,5 C 20,6 C 3,4 km/h (1 Bft)
09.08.2022 09:24 22,2 C 20,6 C 0,0 C 20,0 C 56 % 68 % 54 % 1024,1 hPa 0,0 l/m 2,1 km/h (1 Bft) O-SO 112 14,5 C 20,6 C 5,6 km/h (1 Bft)
09.08.2022 09:22 22,2 C 20,6 C 0,0 C 20,0 C 56 % 68 % 54 % 1024,1 hPa 0,0 l/m 1,9 km/h (1 Bft) S 180 14,5 C 20,6 C 6,0 km/h (2 Bft)
09.08.2022 09:20 22,2 C 20,5 C 0,0 C 19,9 C 56 % 68 % 54 % 1024,1 hPa 0,0 l/m 1,6 km/h (1 Bft) S 180 14,4 C 20,5 C 6,0 km/h (2 Bft)
09.08.2022 09:18 22,2 C 20,5 C 0,0 C 19,9 C 56 % 68 % 54 % 1024,1 hPa 0,0 l/m 1,4 km/h (1 Bft) SW 225 14,4 C 20,5 C 5,1 km/h (1 Bft)
09.08.2022 09:16 22,1 C 20,6 C 0,0 C 19,9 C 56 % 68 % 54 % 1024,1 hPa 0,0 l/m 1,6 km/h (1 Bft) O-NO 67 14,5 C 20,6 C 5,8 km/h (2 Bft)
09.08.2022 09:14 22,1 C 20,1 C 0,0 C 19,9 C 57 % 70 % 54 % 1024,1 hPa 0,0 l/m 1,8 km/h (1 Bft) W-SW 247 14,5 C 20,1 C 5,8 km/h (2 Bft)
09.08.2022 09:12 22,0 C 20,1 C 0,0 C 19,9 C 57 % 70 % 54 % 1024,1 hPa 0,0 l/m 1,6 km/h (1 Bft) W-SW 247 14,5 C 20,1 C 4,1 km/h (1 Bft)
09.08.2022 09:10 22,0 C 20,1 C 0,0 C 19,9 C 57 % 70 % 54 % 1024,1 hPa 0,0 l/m 2,1 km/h (1 Bft) S-SO 157 14,5 C 20,1 C 3,9 km/h (1 Bft)
09.08.2022 09:08 22,0 C 20,0 C 0,0 C 19,9 C 57 % 71 % 54 % 1023,9 hPa 0,0 l/m 2,4 km/h (1 Bft) O 90 14,6 C 20,0 C 5,3 km/h (1 Bft)
09.08.2022 09:06 22,0 C 20,0 C 0,0 C 19,9 C 57 % 71 % 54 % 1023,9 hPa 0,0 l/m 2,9 km/h (1 Bft) S 180 14,6 C 20,0 C 5,3 km/h (1 Bft)
09.08.2022 09:04 22,0 C 19,8 C 0,0 C 19,9 C 57 % 71 % 54 % 1023,9 hPa 0,0 l/m 3,2 km/h (1 Bft) O-NO 67 14,4 C 19,8 C 4,8 km/h (1 Bft)
09.08.2022 09:02 21,9 C 19,8 C 0,0 C 19,9 C 57 % 71 % 54 % 1023,9 hPa 0,0 l/m 3,2 km/h (1 Bft) W-SW 247 14,4 C 19,8 C 4,6 km/h (1 Bft)
09.08.2022 09:00 21,9 C 19,7 C 0,0 C 19,8 C 57 % 71 % 54 % 1023,9 hPa 0,0 l/m 3,2 km/h (1 Bft) W-SW 247 14,3 C 19,7 C 3,6 km/h (1 Bft)
09.08.2022 08:58 21,8 C 19,7 C 0,0 C 19,8 C 57 % 71 % 54 % 1023,9 hPa 0,0 l/m 3,2 km/h (1 Bft) S 180 14,3 C 19,7 C 5,1 km/h (1 Bft)
09.08.2022 08:56 21,8 C 19,7 C 0,0 C 19,8 C 57 % 71 % 54 % 1023,9 hPa 0,0 l/m 2,7 km/h (1 Bft) S-SO 157 14,3 C 19,7 C 5,1 km/h (1 Bft)
09.08.2022 08:54 21,8 C 19,6 C 0,0 C 19,8 C 57 % 71 % 54 % 1023,9 hPa 0,0 l/m 2,9 km/h (1 Bft) S-SW 202 14,2 C 19,6 C 7,2 km/h (2 Bft)
09.08.2022 08:52 21,7 C 19,6 C 0,0 C 19,8 C 57 % 72 % 54 % 1023,9 hPa 0,0 l/m 2,9 km/h (1 Bft) SO 135 14,4 C 19,6 C 9,2 km/h (2 Bft)
09.08.2022 08:50 21,7 C 19,5 C 0,0 C 19,8 C 57 % 72 % 54 % 1023,9 hPa 0,0 l/m 2,6 km/h (1 Bft) NO 45 14,3 C 19,5 C 9,2 km/h (2 Bft)
09.08.2022 08:48 21,7 C 19,5 C 0,0 C 19,8 C 57 % 72 % 54 % 1023,6 hPa 0,0 l/m 2,7 km/h (1 Bft) N-NO 22 14,3 C 19,5 C 5,1 km/h (1 Bft)
09.08.2022 08:46 21,6 C 19,5 C 0,0 C 19,8 C 57 % 73 % 54 % 1023,6 hPa 0,0 l/m 3,1 km/h (1 Bft) SO 135 14,5 C 19,5 C 4,6 km/h (1 Bft)
09.08.2022 08:44 21,6 C 19,5 C 0,0 C 19,8 C 57 % 73 % 54 % 1023,6 hPa 0,0 l/m 2,9 km/h (1 Bft) S 180 14,5 C 19,5 C 6,8 km/h (2 Bft)
09.08.2022 08:42 21,6 C 19,5 C 0,0 C 19,8 C 57 % 73 % 54 % 1023,6 hPa 0,0 l/m 2,4 km/h (1 Bft) S-SO 157 14,5 C 19,5 C 10,9 km/h (2 Bft)
09.08.2022 08:40 21,6 C 19,4 C 0,0 C 19,8 C 57 % 74 % 54 % 1023,6 hPa 0,0 l/m 2,4 km/h (1 Bft) NW 315 14,6 C 19,4 C 4,6 km/h (1 Bft)
09.08.2022 08:38 21,6 C 19,4 C 0,0 C 19,7 C 57 % 74 % 54 % 1023,6 hPa 0,0 l/m 2,3 km/h (1 Bft) O-NO 67 14,6 C 19,4 C 10,1 km/h (2 Bft)
09.08.2022 08:36 21,5 C 19,4 C 0,0 C 19,7 C 57 % 74 % 54 % 1023,6 hPa 0,0 l/m 2,3 km/h (1 Bft) S 180 14,6 C 19,4 C 10,1 km/h (2 Bft)
09.08.2022 08:34 21,5 C 19,4 C 0,0 C 19,7 C 57 % 74 % 54 % 1023,6 hPa 0,0 l/m 1,9 km/h (1 Bft) SW 225 14,6 C 19,4 C 3,9 km/h (1 Bft)
09.08.2022 08:32 21,4 C 19,4 C 0,0 C 19,7 C 57 % 75 % 54 % 1023,6 hPa 0,0 l/m 2,1 km/h (1 Bft) O 90 14,8 C 19,4 C 4,6 km/h (1 Bft)
09.08.2022 08:30 21,4 C 19,4 C 0,0 C 19,7 C 57 % 75 % 54 % 1023,6 hPa 0,0 l/m 2,3 km/h (1 Bft) O-NO 67 14,8 C 19,4 C 4,6 km/h (1 Bft)
09.08.2022 08:28 21,2 C 19,4 C 0,0 C 19,7 C 57 % 75 % 54 % 1023,3 hPa 0,0 l/m 1,9 km/h (1 Bft) S-SW 202 14,8 C 19,4 C 7,2 km/h (2 Bft)
09.08.2022 08:26 21,2 C 19,3 C 0,0 C 19,7 C 57 % 75 % 54 % 1023,3 hPa 0,0 l/m 1,9 km/h (1 Bft) O-SO 112 14,8 C 19,3 C 7,2 km/h (2 Bft)
09.08.2022 08:24 21,3 C 19,2 C 0,0 C 19,7 C 57 % 76 % 54 % 1023,3 hPa 0,0 l/m 1,8 km/h (1 Bft) O-SO 112 14,9 C 19,2 C 5,1 km/h (1 Bft)
09.08.2022 08:22 21,3 C 18,7 C 0,0 C 19,7 C 57 % 77 % 54 % 1023,3 hPa 0,0 l/m 1,4 km/h (1 Bft) O 90 14,6 C 18,7 C 4,8 km/h (1 Bft)
09.08.2022 08:20 21,2 C 18,7 C 0,0 C 19,7 C 57 % 77 % 54 % 1023,3 hPa 0,0 l/m 1,6 km/h (1 Bft) NO 45 14,6 C 18,7 C 4,8 km/h (1 Bft)
09.08.2022 08:18 21,2 C 18,7 C 0,0 C 19,7 C 57 % 77 % 54 % 1023,3 hPa 0,0 l/m 1,6 km/h (1 Bft) O-SO 112 14,6 C 18,7 C 3,4 km/h (1 Bft)
09.08.2022 08:16 21,1 C 18,5 C 0,0 C 19,7 C 58 % 78 % 54 % 1023,3 hPa 0,0 l/m 2,3 km/h (1 Bft) SO 135 14,6 C 18,5 C 7,7 km/h (2 Bft)
09.08.2022 08:14 21,1 C 18,5 C 0,0 C 19,7 C 58 % 78 % 54 % 1023,3 hPa 0,0 l/m 2,3 km/h (1 Bft) S 180 14,6 C 18,5 C 7,7 km/h (2 Bft)
09.08.2022 08:12 21,1 C 18,5 C 0,0 C 19,6 C 58 % 78 % 54 % 1023,3 hPa 0,0 l/m 2,4 km/h (1 Bft) N-NW 337 14,6 C 18,5 C 9,9 km/h (2 Bft)
09.08.2022 08:10 21,1 C 18,3 C 0,0 C 19,6 C 58 % 78 % 54 % 1023,3 hPa 0,0 l/m 2,6 km/h (1 Bft) NO 45 14,4 C 18,3 C 5,3 km/h (1 Bft)
09.08.2022 08:08 21,0 C 18,1 C 0,0 C 19,6 C 58 % 79 % 54 % 1022,9 hPa 0,0 l/m 2,3 km/h (1 Bft) O-NO 67 14,4 C 18,1 C 5,3 km/h (1 Bft)
09.08.2022 08:06 21,0 C 18,1 C 0,0 C 19,6 C 58 % 79 % 54 % 1022,9 hPa 0,0 l/m 1,8 km/h (1 Bft) SO 135 14,4 C 18,1 C 5,3 km/h (1 Bft)
09.08.2022 08:04 20,9 C 18,1 C 0,0 C 19,6 C 58 % 79 % 54 % 1022,9 hPa 0,0 l/m 1,4 km/h (1 Bft) S 180 14,4 C 18,1 C 5,6 km/h (1 Bft)
09.08.2022 08:02 20,9 C 18,2 C 0,0 C 19,6 C 57 % 80 % 54 % 1022,9 hPa 0,0 l/m 1,4 km/h (1 Bft) O-SO 112 14,7 C 18,2 C 8,7 km/h (2 Bft)
09.08.2022 08:00 20,8 C 18,1 C 0,0 C 19,6 C 57 % 81 % 54 % 1022,9 hPa 0,0 l/m 1,1 km/h (1 Bft) O-SO 112 14,8 C 18,1 C 4,3 km/h (1 Bft)
09.08.2022 07:58 20,8 C 18,1 C 0,0 C 19,6 C 57 % 81 % 54 % 1022,9 hPa 0,0 l/m 1,1 km/h (1 Bft) SW 225 14,8 C 18,1 C 4,6 km/h (1 Bft)
09.08.2022 07:56 20,8 C 17,9 C 0,0 C 19,6 C 57 % 82 % 54 % 1022,9 hPa 0,0 l/m 1,3 km/h (1 Bft) O-NO 67 14,8 C 17,9 C 5,1 km/h (1 Bft)
09.08.2022 07:54 20,8 C 17,9 C 0,0 C 19,6 C 57 % 83 % 54 % 1022,9 hPa 0,0 l/m 1,1 km/h (1 Bft) O-SO 112 15,0 C 17,9 C 5,6 km/h (1 Bft)
09.08.2022 07:52 20,7 C 17,6 C 0,0 C 19,6 C 57 % 83 % 54 % 1022,9 hPa 0,0 l/m 0,8 km/h (0 Bft) NO 45 14,7 C 17,6 C 7,2 km/h (2 Bft)
09.08.2022 07:50 20,7 C 17,4 C 0,0 C 19,6 C 57 % 84 % 54 % 1022,9 hPa 0,0 l/m 0,8 km/h (0 Bft) SO 135 14,7 C 17,4 C 3,4 km/h (1 Bft)
09.08.2022 07:48 20,6 C 17,1 C 0,0 C 19,6 C 57 % 85 % 54 % 1022,7 hPa 0,0 l/m 0,5 km/h (0 Bft) O-NO 67 14,6 C 17,1 C 0,0 km/h (0 Bft)
09.08.2022 07:46 20,6 C 17,1 C 0,0 C 19,5 C 57 % 85 % 54 % 1022,7 hPa 0,0 l/m 0,5 km/h (0 Bft) W 270 14,6 C 17,1 C 7,2 km/h (2 Bft)
09.08.2022 07:44 20,6 C 16,8 C 0,0 C 19,5 C 57 % 86 % 54 % 1022,7 hPa 0,0 l/m 0,3 km/h (0 Bft) NO 45 14,4 C 16,8 C 7,2 km/h (2 Bft)
09.08.2022 07:42 20,5 C 16,8 C 0,0 C 19,5 C 57 % 86 % 54 % 1022,7 hPa 0,0 l/m 0,2 km/h (0 Bft) W 270 14,4 C 16,8 C 0,0 km/h (0 Bft)
09.08.2022 07:40 20,5 C 16,8 C 0,0 C 19,5 C 57 % 86 % 54 % 1022,7 hPa 0,0 l/m 0,3 km/h (0 Bft) O-NO 67 14,4 C 16,8 C 2,7 km/h (1 Bft)
09.08.2022 07:38 20,5 C 16,5 C 0,0 C 19,5 C 57 % 86 % 54 % 1022,7 hPa 0,0 l/m 0,6 km/h (0 Bft) SO 135 14,1 C 16,5 C 4,1 km/h (1 Bft)
09.08.2022 07:36 20,4 C 16,4 C 0,0 C 19,5 C 57 % 87 % 54 % 1022,7 hPa 0,0 l/m 1,3 km/h (1 Bft) O-SO 112 14,2 C 16,4 C 4,1 km/h (1 Bft)
09.08.2022 07:34 20,4 C 16,1 C 0,0 C 19,5 C 57 % 87 % 54 % 1022,7 hPa 0,0 l/m 1,6 km/h (1 Bft) S 180 13,9 C 16,1 C 3,4 km/h (1 Bft)
09.08.2022 07:32 20,4 C 15,8 C 0,0 C 19,5 C 57 % 88 % 54 % 1022,7 hPa 0,0 l/m 2,1 km/h (1 Bft) NO 45 13,8 C 15,8 C 6,5 km/h (2 Bft)
09.08.2022 07:30 20,4 C 15,1 C 0,0 C 19,6 C 57 % 88 % 54 % 1022,7 hPa 0,0 l/m 1,9 km/h (1 Bft) S-SO 157 13,1 C 15,1 C 4,6 km/h (1 Bft)
09.08.2022 07:28 20,2 C 15,1 C 0,0 C 19,5 C 57 % 88 % 54 % 1022,7 hPa 0,0 l/m 1,8 km/h (1 Bft) SO 135 13,1 C 15,1 C 4,6 km/h (1 Bft)
09.08.2022 07:26 20,2 C 15,1 C 0,0 C 19,5 C 57 % 88 % 54 % 1022,7 hPa 0,0 l/m 1,4 km/h (1 Bft) O-SO 112 13,1 C 15,1 C 4,8 km/h (1 Bft)
09.08.2022 07:24 20,4 C 13,8 C 0,0 C 19,5 C 57 % 89 % 54 % 1022,7 hPa 0,0 l/m 1,1 km/h (1 Bft) O 90 12,0 C 13,8 C 5,3 km/h (1 Bft)
09.08.2022 07:22 20,3 C 13,8 C 0,0 C 19,5 C 57 % 89 % 54 % 1022,7 hPa 0,0 l/m 0,8 km/h (0 Bft) S 180 12,0 C 13,8 C 5,3 km/h (1 Bft)
09.08.2022 07:20 20,3 C 13,8 C 0,0 C 19,5 C 57 % 89 % 54 % 1022,7 hPa 0,0 l/m 0,5 km/h (0 Bft) N-NO 22 12,0 C 13,8 C 5,1 km/h (1 Bft)
09.08.2022 07:18 20,3 C 13,8 C 0,0 C 19,5 C 57 % 89 % 54 % 1022,7 hPa 0,0 l/m 0,5 km/h (0 Bft) NW 315 12,0 C 13,8 C 5,1 km/h (1 Bft)
09.08.2022 07:16 20,3 C 12,4 C 0,0 C 19,5 C 57 % 89 % 54 % 1022,7 hPa 0,0 l/m 0,3 km/h (0 Bft) O-SO 112 10,6 C 12,4 C 2,9 km/h (1 Bft)
09.08.2022 07:14 20,2 C 12,4 C 0,0 C 19,5 C 57 % 89 % 54 % 1022,7 hPa 0,0 l/m 0,2 km/h (0 Bft) S 180 10,6 C 12,4 C 0,0 km/h (0 Bft)
09.08.2022 07:12 20,3 C 12,4 C 0,0 C 19,5 C 57 % 89 % 54 % 1022,7 hPa 0,0 l/m 0,0 km/h (0 Bft) O-NO 67 10,6 C 12,4 C 0,0 km/h (0 Bft)
09.08.2022 07:10 20,2 C 12,4 C 0,0 C 19,5 C 57 % 89 % 54 % 1022,7 hPa 0,0 l/m 0,0 km/h (0 Bft) S 180 10,6 C 12,4 C 0,0 km/h (0 Bft)
09.08.2022 07:08 20,3 C 12,4 C 0,0 C 19,5 C 56 % 89 % 54 % 1022,8 hPa 0,0 l/m 0,0 km/h (0 Bft) NO 45 10,6 C 12,4 C 0,0 km/h (0 Bft)
09.08.2022 07:06 20,3 C 12,1 C 0,0 C 19,5 C 56 % 89 % 54 % 1022,8 hPa 0,0 l/m 0,0 km/h (0 Bft) W-SW 247 10,3 C 12,1 C 0,0 km/h (0 Bft)
09.08.2022 07:04 20,3 C 12,1 C 0,0 C 19,5 C 56 % 89 % 54 % 1022,8 hPa 0,0 l/m 0,0 km/h (0 Bft) N-NW 337 10,3 C 12,1 C 0,0 km/h (0 Bft)
09.08.2022 07:02 20,3 C 12,1 C 0,0 C 19,5 C 56 % 89 % 54 % 1022,8 hPa 0,0 l/m 0,0 km/h (0 Bft) N-NW 337 10,3 C 12,1 C 0,0 km/h (0 Bft)
09.08.2022 07:00 20,3 C 12,1 C 0,0 C 19,5 C 56 % 89 % 54 % 1022,8 hPa 0,0 l/m 0,0 km/h (0 Bft) N-NW 337 10,3 C 12,1 C 0,0 km/h (0 Bft)
09.08.2022 06:58 20,2 C 12,1 C 0,0 C 19,5 C 56 % 89 % 54 % 1022,8 hPa 0,0 l/m 0,0 km/h (0 Bft) W-SW 247 10,3 C 12,1 C 0,0 km/h (0 Bft)
09.08.2022 06:56 20,2 C 12,0 C 0,0 C 19,5 C 56 % 89 % 54 % 1022,8 hPa 0,0 l/m 0,0 km/h (0 Bft) W-NW 292 10,2 C 12,0 C 0,0 km/h (0 Bft)
09.08.2022 06:54 20,2 C 12,0 C 0,0 C 19,5 C 56 % 89 % 54 % 1022,8 hPa 0,0 l/m 0,0 km/h (0 Bft) NW 315 10,2 C 12,0 C 0,0 km/h (0 Bft)
09.08.2022 06:52 20,4 C 11,9 C 0,0 C 19,5 C 56 % 88 % 54 % 1022,8 hPa 0,0 l/m 0,0 km/h (0 Bft) NW 315 10,0 C 11,9 C 0,0 km/h (0 Bft)
09.08.2022 06:50 20,4 C 11,9 C 0,0 C 19,5 C 56 % 88 % 54 % 1022,8 hPa 0,0 l/m 0,0 km/h (0 Bft) W-SW 247 10,0 C 11,9 C 0,0 km/h (0 Bft)
09.08.2022 06:48 20,4 C 11,9 C 0,0 C 19,5 C 56 % 88 % 54 % 1022,6 hPa 0,0 l/m 0,0 km/h (0 Bft) N-NO 22 10,0 C 11,9 C 0,0 km/h (0 Bft)
09.08.2022 06:46 20,4 C 11,9 C 0,0 C 19,5 C 56 % 88 % 54 % 1022,6 hPa 0,0 l/m 0,0 km/h (0 Bft) SW 225 10,0 C 11,9 C 0,0 km/h (0 Bft)
09.08.2022 06:44 20,4 C 11,9 C 0,0 C 19,5 C 56 % 88 % 54 % 1022,6 hPa 0,0 l/m 0,0 km/h (0 Bft) NW 315 10,0 C 11,9 C 0,0 km/h (0 Bft)
09.08.2022 06:42 20,4 C 11,8 C 0,0 C 19,5 C 56 % 88 % 54 % 1022,6 hPa 0,0 l/m 0,0 km/h (0 Bft) W 270 9,9 C 11,8 C 0,0 km/h (0 Bft)
09.08.2022 06:40 20,4 C 11,8 C 0,0 C 19,5 C 56 % 88 % 54 % 1022,6 hPa 0,0 l/m 0,0 km/h (0 Bft) W 270 9,9 C 11,8 C 0,0 km/h (0 Bft)
09.08.2022 06:38 20,4 C 11,8 C 0,0 C 19,6 C 56 % 88 % 54 % 1022,6 hPa 0,0 l/m 0,0 km/h (0 Bft) NW 315 9,9 C 11,8 C 0,0 km/h (0 Bft)
09.08.2022 06:36 20,4 C 11,8 C 0,0 C 19,6 C 56 % 88 % 54 % 1022,6 hPa 0,0 l/m 0,0 km/h (0 Bft) NW 315 9,9 C 11,8 C 0,0 km/h (0 Bft)
09.08.2022 06:34 20,4 C 11,8 C 0,0 C 19,6 C 56 % 88 % 54 % 1022,6 hPa 0,0 l/m 0,0 km/h (0 Bft) N-NO 22 9,9 C 11,8 C 0,0 km/h (0 Bft)
09.08.2022 06:32 20,4 C 11,8 C 0,0 C 19,6 C 56 % 88 % 54 % 1022,6 hPa 0,0 l/m 0,0 km/h (0 Bft) NW 315 9,9 C 11,8 C 0,0 km/h (0 Bft)
09.08.2022 06:30 20,4 C 11,8 C 0,0 C 19,6 C 56 % 88 % 54 % 1022,6 hPa 0,0 l/m 0,0 km/h (0 Bft) W-NW 292 9,9 C 11,8 C 0,0 km/h (0 Bft)
09.08.2022 06:28 20,4 C 11,8 C 0,0 C 19,6 C 56 % 88 % 54 % 1022,7 hPa 0,0 l/m 0,0 km/h (0 Bft) W 270 9,9 C 11,8 C 0,0 km/h (0 Bft)
09.08.2022 06:26 20,4 C 11,8 C 0,0 C 19,6 C 56 % 88 % 54 % 1022,7 hPa 0,0 l/m 0,0 km/h (0 Bft) NW 315 9,9 C 11,8 C 0,0 km/h (0 Bft)
09.08.2022 06:24 20,5 C 11,8 C 0,0 C 19,6 C 56 % 88 % 54 % 1022,7 hPa 0,0 l/m 0,0 km/h (0 Bft) NW 315 9,9 C 11,8 C 0,0 km/h (0 Bft)
09.08.2022 06:22 20,5 C 11,8 C 0,0 C 19,6 C 56 % 88 % 54 % 1022,7 hPa 0,0 l/m 0,0 km/h (0 Bft) N-NW 337 9,9 C 11,8 C 0,0 km/h (0 Bft)
09.08.2022 06:20 20,5 C 11,8 C 0,0 C 19,6 C 56 % 88 % 54 % 1022,7 hPa 0,0 l/m 0,0 km/h (0 Bft) NW 315 9,9 C 11,8 C 0,0 km/h (0 Bft)
09.08.2022 06:18 20,5 C 11,8 C 0,0 C 19,6 C 56 % 88 % 54 % 1022,7 hPa 0,0 l/m 0,0 km/h (0 Bft) NW 315 9,9 C 11,8 C 0,0 km/h (0 Bft)
09.08.2022 06:16 20,5 C 11,8 C 0,0 C 19,6 C 56 % 88 % 54 % 1022,7 hPa 0,0 l/m 0,0 km/h (0 Bft) W-SW 247 9,9 C 11,8 C 0,0 km/h (0 Bft)
09.08.2022 06:14 20,5 C 11,8 C 0,0 C 19,6 C 56 % 88 % 54 % 1022,7 hPa 0,0 l/m 0,0 km/h (0 Bft) W-NW 292 9,9 C 11,8 C 0,0 km/h (0 Bft)
09.08.2022 06:12 20,5 C 11,8 C 0,0 C 19,7 C 56 % 88 % 54 % 1022,7 hPa 0,0 l/m 0,0 km/h (0 Bft) NW 315 9,9 C 11,8 C 0,0 km/h (0 Bft)
09.08.2022 06:10 20,5 C 11,7 C 0,0 C 19,8 C 56 % 87 % 54 % 1022,7 hPa 0,0 l/m 0,0 km/h (0 Bft) W-SW 247 9,6 C 11,7 C 0,0 km/h (0 Bft)
09.08.2022 06:08 20,6 C 11,7 C 0,0 C 19,8 C 56 % 87 % 54 % 1022,8 hPa 0,0 l/m 0,0 km/h (0 Bft) W-SW 247 9,6 C 11,7 C 0,0 km/h (0 Bft)
09.08.2022 06:06 20,6 C 11,7 C 0,0 C 19,8 C 56 % 87 % 54 % 1022,8 hPa 0,0 l/m 0,0 km/h (0 Bft) W-SW 247 9,6 C 11,7 C 0,0 km/h (0 Bft)
09.08.2022 06:04 20,6 C 11,7 C 0,0 C 19,8 C 56 % 87 % 54 % 1022,8 hPa 0,0 l/m 0,0 km/h (0 Bft) W-SW 247 9,6 C 11,7 C 0,0 km/h (0 Bft)
09.08.2022 06:02 20,6 C 11,7 C 0,0 C 19,8 C 56 % 87 % 54 % 1022,8 hPa 0,0 l/m 0,0 km/h (0 Bft) W-SW 247 9,6 C 11,7 C 0,0 km/h (0 Bft)
09.08.2022 06:00 20,6 C 11,7 C 0,0 C 19,8 C 56 % 87 % 54 % 1022,8 hPa 0,0 l/m 0,0 km/h (0 Bft) W 270 9,6 C 11,7 C 0,0 km/h (0 Bft)
09.08.2022 05:58 20,6 C 11,7 C 0,0 C 19,8 C 56 % 87 % 53 % 1022,8 hPa 0,0 l/m 0,0 km/h (0 Bft) NW 315 9,6 C 11,7 C 0,0 km/h (0 Bft)
09.08.2022 05:56 20,6 C 11,7 C 0,0 C 19,8 C 56 % 87 % 53 % 1022,8 hPa 0,0 l/m 0,0 km/h (0 Bft) W 270 9,6 C 11,7 C 0,0 km/h (0 Bft)
09.08.2022 05:54 20,6 C 11,7 C 0,0 C 19,8 C 56 % 87 % 54 % 1022,8 hPa 0,0 l/m 0,0 km/h (0 Bft) N-NW 337 9,6 C 11,7 C 0,0 km/h (0 Bft)
09.08.2022 05:52 20,6 C 11,7 C 0,0 C 19,8 C 56 % 87 % 53 % 1022,8 hPa 0,0 l/m 0,0 km/h (0 Bft) NW 315 9,6 C 11,7 C 0,0 km/h (0 Bft)
09.08.2022 05:50 20,7 C 11,7 C 0,0 C 19,8 C 56 % 87 % 54 % 1022,8 hPa 0,0 l/m 0,0 km/h (0 Bft) NW 315 9,6 C 11,7 C 0,0 km/h (0 Bft)
09.08.2022 05:48 20,7 C 11,7 C 0,0 C 19,8 C 56 % 87 % 53 % 1022,7 hPa 0,0 l/m 0,0 km/h (0 Bft) NW 315 9,6 C 11,7 C 0,0 km/h (0 Bft)
09.08.2022 05:46 20,7 C 11,7 C 0,0 C 19,9 C 56 % 87 % 53 % 1022,7 hPa 0,0 l/m 0,0 km/h (0 Bft) W 270 9,6 C 11,7 C 0,0 km/h (0 Bft)
09.08.2022 05:44 20,7 C 11,7 C 0,0 C 19,9 C 56 % 87 % 53 % 1022,7 hPa 0,0 l/m 0,0 km/h (0 Bft) NW 315 9,6 C 11,7 C 0,0 km/h (0 Bft)
09.08.2022 05:42 20,7 C 11,7 C 0,0 C 19,9 C 56 % 87 % 53 % 1022,7 hPa 0,0 l/m 0,0 km/h (0 Bft) NW 315 9,6 C 11,7 C 0,0 km/h (0 Bft)
09.08.2022 05:40 20,7 C 11,7 C 0,0 C 19,9 C 56 % 87 % 53 % 1022,7 hPa 0,0 l/m 0,0 km/h (0 Bft) W 270 9,6 C 11,7 C 0,0 km/h (0 Bft)
09.08.2022 05:38 20,7 C 11,7 C 0,0 C 19,9 C 56 % 87 % 53 % 1022,7 hPa 0,0 l/m 0,0 km/h (0 Bft) W 270 9,6 C 11,7 C 0,0 km/h (0 Bft)
09.08.2022 05:36 20,8 C 11,7 C 0,0 C 19,9 C 57 % 87 % 53 % 1022,7 hPa 0,0 l/m 0,0 km/h (0 Bft) W 270 9,6 C 11,7 C 0,0 km/h (0 Bft)
09.08.2022 05:34 20,8 C 11,7 C 0,0 C 19,9 C 57 % 87 % 53 % 1022,7 hPa 0,0 l/m 0,0 km/h (0 Bft) N-NW 337 9,6 C 11,7 C 0,0 km/h (0 Bft)
09.08.2022 05:32 20,8 C 11,7 C 0,0 C 19,9 C 57 % 87 % 53 % 1022,7 hPa 0,0 l/m 0,0 km/h (0 Bft) N-NW 337 9,6 C 11,7 C 0,0 km/h (0 Bft)
09.08.2022 05:30 20,8 C 11,7 C 0,0 C 19,9 C 57 % 87 % 53 % 1022,7 hPa 0,0 l/m 0,0 km/h (0 Bft) N 360 9,6 C 11,7 C 0,0 km/h (0 Bft)
09.08.2022 05:28 20,8 C 11,7 C 0,0 C 19,9 C 57 % 87 % 53 % 1022,6 hPa 0,0 l/m 0,0 km/h (0 Bft) W 270 9,6 C 11,7 C 0,0 km/h (0 Bft)
09.08.2022 05:26 20,8 C 11,8 C 0,0 C 19,9 C 57 % 87 % 53 % 1022,6 hPa 0,0 l/m 0,0 km/h (0 Bft) W-SW 247 9,7 C 11,8 C 0,0 km/h (0 Bft)
09.08.2022 05:24 20,8 C 11,8 C 0,0 C 19,9 C 57 % 87 % 53 % 1022,6 hPa 0,0 l/m 0,0 km/h (0 Bft) W 270 9,7 C 11,8 C 0,0 km/h (0 Bft)
09.08.2022 05:22 20,8 C 11,8 C 0,0 C 20,0 C 57 % 87 % 53 % 1022,6 hPa 0,0 l/m 0,0 km/h (0 Bft) W-NW 292 9,7 C 11,8 C 0,0 km/h (0 Bft)
09.08.2022 05:20 20,8 C 11,8 C 0,0 C 20,0 C 57 % 87 % 53 % 1022,6 hPa 0,0 l/m 0,0 km/h (0 Bft) NW 315 9,7 C 11,8 C 0,0 km/h (0 Bft)
09.08.2022 05:18 20,8 C 11,8 C 0,0 C 20,0 C 57 % 87 % 53 % 1022,6 hPa 0,0 l/m 0,0 km/h (0 Bft) N-NO 22 9,7 C 11,8 C 0,0 km/h (0 Bft)
09.08.2022 05:16 20,8 C 11,9 C 0,0 C 20,0 C 57 % 87 % 53 % 1022,6 hPa 0,0 l/m 0,0 km/h (0 Bft) N-NW 337 9,8 C 11,9 C 0,0 km/h (0 Bft)
09.08.2022 05:14 20,8 C 11,9 C 0,0 C 20,0 C 57 % 87 % 53 % 1022,6 hPa 0,0 l/m 0,0 km/h (0 Bft) N-NW 337 9,8 C 11,9 C 0,0 km/h (0 Bft)
09.08.2022 05:12 20,9 C 11,9 C 0,0 C 20,0 C 57 % 87 % 53 % 1022,6 hPa 0,0 l/m 0,0 km/h (0 Bft) NW 315 9,8 C 11,9 C 0,0 km/h (0 Bft)
09.08.2022 05:10 20,9 C 11,9 C 0,0 C 20,0 C 57 % 87 % 53 % 1022,6 hPa 0,0 l/m 0,0 km/h (0 Bft) NW 315 9,8 C 11,9 C 0,0 km/h (0 Bft)
09.08.2022 05:08 20,9 C 11,9 C 0,0 C 20,0 C 57 % 87 % 53 % 1022,7 hPa 0,0 l/m 0,0 km/h (0 Bft) NW 315 9,8 C 11,9 C 0,0 km/h (0 Bft)
09.08.2022 05:06 20,9 C 11,9 C 0,0 C 20,0 C 56 % 87 % 53 % 1022,7 hPa 0,0 l/m 0,0 km/h (0 Bft) NW 315 9,8 C 11,9 C 0,0 km/h (0 Bft)
09.08.2022 05:04 20,9 C 11,9 C 0,0 C 20,1 C 56 % 87 % 53 % 1022,7 hPa 0,0 l/m 0,0 km/h (0 Bft) NW 315 9,8 C 11,9 C 0,0 km/h (0 Bft)
09.08.2022 05:02 20,9 C 11,9 C 0,0 C 20,1 C 56 % 87 % 53 % 1022,7 hPa 0,0 l/m 0,0 km/h (0 Bft) N-NW 337 9,8 C 11,9 C 0,0 km/h (0 Bft)
09.08.2022 05:00 21,0 C 12,0 C 0,0 C 20,1 C 56 % 86 % 53 % 1022,7 hPa 0,0 l/m 0,0 km/h (0 Bft) NW 315 9,7 C 12,0 C 0,0 km/h (0 Bft)
09.08.2022 04:58 21,0 C 12,0 C 0,0 C 20,1 C 56 % 86 % 53 % 1022,7 hPa 0,0 l/m 0,0 km/h (0 Bft) N-NW 337 9,7 C 12,0 C 0,0 km/h (0 Bft)
09.08.2022 04:56 21,0 C 12,0 C 0,0 C 20,1 C 57 % 86 % 53 % 1022,7 hPa 0,0 l/m 0,0 km/h (0 Bft) W-NW 292 9,7 C 12,0 C 0,0 km/h (0 Bft)
09.08.2022 04:54 21,0 C 12,0 C 0,0 C 20,1 C 56 % 86 % 53 % 1022,7 hPa 0,0 l/m 0,0 km/h (0 Bft) NW 315 9,7 C 12,0 C 0,0 km/h (0 Bft)
09.08.2022 04:52 21,0 C 12,0 C 0,0 C 20,1 C 56 % 86 % 53 % 1022,7 hPa 0,0 l/m 0,0 km/h (0 Bft) NW 315 9,7 C 12,0 C 0,0 km/h (0 Bft)
09.08.2022 04:50 21,0 C 12,0 C 0,0 C 20,2 C 56 % 86 % 53 % 1022,7 hPa 0,0 l/m 0,0 km/h (0 Bft) N-NW 337 9,7 C 12,0 C 0,0 km/h (0 Bft)
09.08.2022 04:48 21,0 C 12,0 C 0,0 C 20,2 C 57 % 86 % 53 % 1022,7 hPa 0,0 l/m 0,0 km/h (0 Bft) W-NW 292 9,7 C 12,0 C 0,0 km/h (0 Bft)
09.08.2022 04:46 21,0 C 12,0 C 0,0 C 20,2 C 56 % 86 % 53 % 1022,7 hPa 0,0 l/m 0,0 km/h (0 Bft) N 360 9,7 C 12,0 C 0,0 km/h (0 Bft)
09.08.2022 04:44 21,0 C 12,0 C 0,0 C 20,2 C 56 % 86 % 53 % 1022,7 hPa 0,0 l/m 0,0 km/h (0 Bft) W-NW 292 9,7 C 12,0 C 0,0 km/h (0 Bft)
09.08.2022 04:42 21,0 C 12,0 C 0,0 C 20,2 C 56 % 86 % 53 % 1022,7 hPa 0,0 l/m 0,0 km/h (0 Bft) NW 315 9,7 C 12,0 C 0,0 km/h (0 Bft)
09.08.2022 04:40 21,1 C 12,0 C 0,0 C 20,2 C 56 % 86 % 53 % 1022,7 hPa 0,0 l/m 0,0 km/h (0 Bft) NW 315 9,7 C 12,0 C 0,0 km/h (0 Bft)
09.08.2022 04:38 21,1 C 12,0 C 0,0 C 20,2 C 56 % 86 % 53 % 1022,7 hPa 0,0 l/m 0,0 km/h (0 Bft) NW 315 9,7 C 12,0 C 0,0 km/h (0 Bft)
09.08.2022 04:36 21,1 C 12,1 C 0,0 C 20,2 C 56 % 86 % 53 % 1022,7 hPa 0,0 l/m 0,0 km/h (0 Bft) W 270 9,8 C 12,1 C 0,0 km/h (0 Bft)
09.08.2022 04:34 21,1 C 12,1 C 0,0 C 20,2 C 56 % 86 % 53 % 1022,7 hPa 0,0 l/m 0,0 km/h (0 Bft) W-NW 292 9,8 C 12,1 C 0,0 km/h (0 Bft)
09.08.2022 04:32 21,1 C 12,1 C 0,0 C 20,2 C 56 % 86 % 53 % 1022,7 hPa 0,0 l/m 0,0 km/h (0 Bft) W 270 9,8 C 12,1 C 0,0 km/h (0 Bft)
09.08.2022 04:30 21,1 C 12,1 C 0,0 C 20,2 C 56 % 86 % 53 % 1022,7 hPa 0,0 l/m 0,0 km/h (0 Bft) NW 315 9,8 C 12,1 C 0,0 km/h (0 Bft)
09.08.2022 04:28 21,2 C 12,1 C 0,0 C 20,3 C 56 % 86 % 53 % 1022,9 hPa 0,0 l/m 0,0 km/h (0 Bft) W 270 9,8 C 12,1 C 0,0 km/h (0 Bft)
09.08.2022 04:26 21,2 C 12,1 C 0,0 C 20,3 C 56 % 86 % 53 % 1022,9 hPa 0,0 l/m 0,0 km/h (0 Bft) NW 315 9,8 C 12,1 C 0,0 km/h (0 Bft)
09.08.2022 04:24 21,2 C 12,1 C 0,0 C 20,3 C 56 % 86 % 53 % 1022,9 hPa 0,0 l/m 0,0 km/h (0 Bft) N 360 9,8 C 12,1 C 0,0 km/h (0 Bft)
09.08.2022 04:22 21,2 C 12,2 C 0,0 C 20,3 C 56 % 86 % 53 % 1022,9 hPa 0,0 l/m 0,0 km/h (0 Bft) NW 315 9,9 C 12,2 C 0,0 km/h (0 Bft)
09.08.2022 04:20 21,2 C 12,2 C 0,0 C 20,3 C 56 % 86 % 53 % 1022,9 hPa 0,0 l/m 0,0 km/h (0 Bft) NW 315 9,9 C 12,2 C 0,0 km/h (0 Bft)
09.08.2022 04:18 21,2 C 12,2 C 0,0 C 20,3 C 56 % 86 % 53 % 1022,9 hPa 0,0 l/m 0,0 km/h (0 Bft) NW 315 9,9 C 12,2 C 0,0 km/h (0 Bft)
09.08.2022 04:16 21,2 C 12,2 C 0,0 C 20,3 C 56 % 86 % 53 % 1022,9 hPa 0,0 l/m 0,0 km/h (0 Bft) W-NW 292 9,9 C 12,2 C 0,0 km/h (0 Bft)
09.08.2022 04:14 21,2 C 12,2 C 0,0 C 20,3 C 56 % 86 % 53 % 1022,9 hPa 0,0 l/m 0,0 km/h (0 Bft) NW 315 9,9 C 12,2 C 0,0 km/h (0 Bft)
09.08.2022 04:12 21,2 C 12,2 C 0,0 C 20,3 C 56 % 86 % 53 % 1022,9 hPa 0,0 l/m 0,0 km/h (0 Bft) NW 315 9,9 C 12,2 C 0,0 km/h (0 Bft)
09.08.2022 04:10 21,2 C 12,2 C 0,0 C 20,3 C 56 % 86 % 53 % 1022,9 hPa 0,0 l/m 0,0 km/h (0 Bft) NW 315 9,9 C 12,2 C 0,0 km/h (0 Bft)
09.08.2022 04:08 21,2 C 12,2 C 0,0 C 20,3 C 56 % 86 % 53 % 1022,7 hPa 0,0 l/m 0,0 km/h (0 Bft) NW 315 9,9 C 12,2 C 0,0 km/h (0 Bft)
09.08.2022 04:06 21,3 C 12,2 C 0,0 C 20,4 C 56 % 86 % 53 % 1022,7 hPa 0,0 l/m 0,0 km/h (0 Bft) NW 315 9,9 C 12,2 C 0,0 km/h (0 Bft)
09.08.2022 04:04 21,3 C 12,2 C 0,0 C 20,4 C 56 % 86 % 53 % 1022,7 hPa 0,0 l/m 0,0 km/h (0 Bft) NW 315 9,9 C 12,2 C 0,0 km/h (0 Bft)
09.08.2022 04:02 21,2 C 12,2 C 0,0 C 20,4 C 56 % 86 % 53 % 1022,7 hPa 0,0 l/m 0,0 km/h (0 Bft) NW 315 9,9 C 12,2 C 0,0 km/h (0 Bft)
09.08.2022 04:00 21,2 C 12,2 C 0,0 C 20,4 C 56 % 86 % 53 % 1022,7 hPa 0,0 l/m 0,0 km/h (0 Bft) NW 315 9,9 C 12,2 C 0,0 km/h (0 Bft)
09.08.2022 03:58 21,2 C 12,2 C 0,0 C 20,4 C 56 % 86 % 53 % 1022,7 hPa 0,0 l/m 0,0 km/h (0 Bft) N-NW 337 9,9 C 12,2 C 0,0 km/h (0 Bft)
09.08.2022 03:56 21,4 C 12,2 C 0,0 C 20,4 C 56 % 86 % 53 % 1022,7 hPa 0,0 l/m 0,0 km/h (0 Bft) N-NW 337 9,9 C 12,2 C 0,0 km/h (0 Bft)
09.08.2022 03:54 21,2 C 12,2 C 0,0 C 20,4 C 56 % 86 % 53 % 1022,7 hPa 0,0 l/m 0,0 km/h (0 Bft) W-SW 247 9,9 C 12,2 C 0,0 km/h (0 Bft)
09.08.2022 03:52 21,4 C 12,4 C 0,0 C 20,4 C 56 % 85 % 53 % 1022,7 hPa 0,0 l/m 0,0 km/h (0 Bft) NW 315 9,9 C 12,4 C 0,0 km/h (0 Bft)
09.08.2022 03:50 21,4 C 12,4 C 0,0 C 20,4 C 56 % 85 % 53 % 1022,7 hPa 0,0 l/m 0,0 km/h (0 Bft) N-NW 337 9,9 C 12,4 C 0,0 km/h (0 Bft)
09.08.2022 03:48 21,4 C 12,4 C 0,0 C 20,4 C 56 % 85 % 53 % 1022,7 hPa 0,0 l/m 0,0 km/h (0 Bft) N-NW 337 9,9 C 12,4 C 0,0 km/h (0 Bft)
09.08.2022 03:46 21,4 C 12,4 C 0,0 C 20,4 C 56 % 85 % 53 % 1022,7 hPa 0,0 l/m 0,0 km/h (0 Bft) NW 315 9,9 C 12,4 C 0,0 km/h (0 Bft)
09.08.2022 03:44 21,4 C 12,4 C 0,0 C 20,4 C 56 % 85 % 53 % 1022,7 hPa 0,0 l/m 0,0 km/h (0 Bft) NW 315 9,9 C 12,4 C 0,0 km/h (0 Bft)
09.08.2022 03:42 21,4 C 12,4 C 0,0 C 20,4 C 56 % 85 % 53 % 1022,7 hPa 0,0 l/m 0,0 km/h (0 Bft) NW 315 9,9 C 12,4 C 0,0 km/h (0 Bft)
09.08.2022 03:40 21,4 C 12,4 C 0,0 C 20,4 C 56 % 85 % 53 % 1022,7 hPa 0,0 l/m 0,0 km/h (0 Bft) NW 315 9,9 C 12,4 C 0,0 km/h (0 Bft)
09.08.2022 03:38 21,4 C 12,4 C 0,0 C 20,4 C 56 % 85 % 53 % 1022,7 hPa 0,0 l/m 0,0 km/h (0 Bft) NW 315 9,9 C 12,4 C 0,0 km/h (0 Bft)
09.08.2022 03:36 21,4 C 12,4 C 0,0 C 20,4 C 56 % 85 % 53 % 1022,7 hPa 0,0 l/m 0,0 km/h (0 Bft) NW 315 9,9 C 12,4 C 0,0 km/h (0 Bft)
09.08.2022 03:34 21,5 C 12,4 C 0,0 C 20,4 C 56 % 85 % 53 % 1022,7 hPa 0,0 l/m 0,0 km/h (0 Bft) NW 315 9,9 C 12,4 C 0,0 km/h (0 Bft)
09.08.2022 03:32 21,5 C 12,4 C 0,0 C 20,4 C 56 % 85 % 53 % 1022,7 hPa 0,0 l/m 0,0 km/h (0 Bft) NW 315 9,9 C 12,4 C 0,0 km/h (0 Bft)
09.08.2022 03:30 21,5 C 12,4 C 0,0 C 20,4 C 56 % 85 % 53 % 1022,7 hPa 0,0 l/m 0,0 km/h (0 Bft) NW 315 9,9 C 12,4 C 0,0 km/h (0 Bft)
09.08.2022 03:28 21,5 C 12,5 C 0,0 C 20,4 C 56 % 85 % 53 % 1022,9 hPa 0,0 l/m 0,0 km/h (0 Bft) NW 315 10,0 C 12,5 C 0,0 km/h (0 Bft)
09.08.2022 03:26 21,5 C 12,5 C 0,0 C 20,5 C 56 % 85 % 53 % 1022,9 hPa 0,0 l/m 0,0 km/h (0 Bft) NW 315 10,0 C 12,5 C 0,0 km/h (0 Bft)
09.08.2022 03:24 21,5 C 12,5 C 0,0 C 20,5 C 56 % 85 % 53 % 1022,9 hPa 0,0 l/m 0,0 km/h (0 Bft) NW 315 10,0 C 12,5 C 0,0 km/h (0 Bft)
09.08.2022 03:22 21,6 C 12,5 C 0,0 C 20,5 C 56 % 85 % 53 % 1022,9 hPa 0,0 l/m 0,0 km/h (0 Bft) W-NW 292 10,0 C 12,5 C 0,0 km/h (0 Bft)
09.08.2022 03:20 21,6 C 12,5 C 0,0 C 20,5 C 56 % 85 % 53 % 1022,9 hPa 0,0 l/m 0,0 km/h (0 Bft) NW 315 10,0 C 12,5 C 0,0 km/h (0 Bft)
09.08.2022 03:18 21,6 C 12,5 C 0,0 C 20,5 C 56 % 85 % 53 % 1022,9 hPa 0,0 l/m 0,0 km/h (0 Bft) NW 315 10,0 C 12,5 C 0,0 km/h (0 Bft)
09.08.2022 03:16 21,6 C 12,6 C 0,0 C 20,5 C 56 % 85 % 53 % 1022,9 hPa 0,0 l/m 0,0 km/h (0 Bft) W-NW 292 10,1 C 12,6 C 0,0 km/h (0 Bft)
09.08.2022 03:14 21,6 C 12,6 C 0,0 C 20,5 C 56 % 85 % 53 % 1022,9 hPa 0,0 l/m 0,0 km/h (0 Bft) W 270 10,1 C 12,6 C 0,0 km/h (0 Bft)
09.08.2022 03:12 21,6 C 12,7 C 0,0 C 20,5 C 56 % 85 % 53 % 1022,9 hPa 0,0 l/m 0,0 km/h (0 Bft) N-NW 337 10,2 C 12,7 C 0,0 km/h (0 Bft)
09.08.2022 03:10 21,6 C 12,7 C 0,0 C 20,5 C 56 % 85 % 53 % 1022,9 hPa 0,0 l/m 0,0 km/h (0 Bft) NW 315 10,2 C 12,7 C 0,0 km/h (0 Bft)
09.08.2022 03:08 21,6 C 12,7 C 0,0 C 20,5 C 56 % 85 % 53 % 1023,1 hPa 0,0 l/m 0,0 km/h (0 Bft) NW 315 10,2 C 12,7 C 0,0 km/h (0 Bft)
09.08.2022 03:06 21,6 C 12,7 C 0,0 C 20,5 C 56 % 85 % 53 % 1023,1 hPa 0,0 l/m 0,0 km/h (0 Bft) NW 315 10,2 C 12,7 C 0,0 km/h (0 Bft)
09.08.2022 03:04 21,6 C 12,7 C 0,0 C 20,5 C 56 % 85 % 53 % 1023,1 hPa 0,0 l/m 0,0 km/h (0 Bft) NW 315 10,2 C 12,7 C 0,0 km/h (0 Bft)
09.08.2022 03:02 21,7 C 12,7 C 0,0 C 20,5 C 56 % 85 % 53 % 1023,1 hPa 0,0 l/m 0,0 km/h (0 Bft) NW 315 10,2 C 12,7 C 0,0 km/h (0 Bft)
09.08.2022 03:00 21,7 C 12,7 C 0,0 C 20,5 C 56 % 85 % 53 % 1023,1 hPa 0,0 l/m 0,0 km/h (0 Bft) NW 315 10,2 C 12,7 C 0,0 km/h (0 Bft)
09.08.2022 02:58 21,7 C 12,7 C 0,0 C 20,5 C 56 % 85 % 53 % 1023,1 hPa 0,0 l/m 0,0 km/h (0 Bft) N-NW 337 10,2 C 12,7 C 0,0 km/h (0 Bft)
09.08.2022 02:56 21,7 C 12,7 C 0,0 C 20,5 C 56 % 85 % 53 % 1023,1 hPa 0,0 l/m 0,0 km/h (0 Bft) NW 315 10,2 C 12,7 C 0,0 km/h (0 Bft)
09.08.2022 02:54 21,7 C 12,7 C 0,0 C 20,6 C 56 % 85 % 53 % 1023,1 hPa 0,0 l/m 0,0 km/h (0 Bft) NW 315 10,2 C 12,7 C 0,0 km/h (0 Bft)
09.08.2022 02:52 21,7 C 12,7 C 0,0 C 20,6 C 56 % 85 % 53 % 1023,1 hPa 0,0 l/m 0,0 km/h (0 Bft) NW 315 10,2 C 12,7 C 0,0 km/h (0 Bft)
09.08.2022 02:50 21,7 C 12,8 C 0,0 C 20,6 C 56 % 84 % 53 % 1023,1 hPa 0,0 l/m 0,0 km/h (0 Bft) NW 315 10,2 C 12,8 C 0,0 km/h (0 Bft)
09.08.2022 02:48 21,8 C 12,8 C 0,0 C 20,5 C 56 % 84 % 53 % 1023,1 hPa 0,0 l/m 0,0 km/h (0 Bft) NW 315 10,2 C 12,8 C 0,0 km/h (0 Bft)
09.08.2022 02:46 21,8 C 12,8 C 0,0 C 20,6 C 56 % 84 % 53 % 1023,1 hPa 0,0 l/m 0,0 km/h (0 Bft) NW 315 10,2 C 12,8 C 0,0 km/h (0 Bft)
09.08.2022 02:44 21,8 C 12,8 C 0,0 C 20,6 C 56 % 84 % 53 % 1023,1 hPa 0,0 l/m 0,0 km/h (0 Bft) NW 315 10,2 C 12,8 C 0,0 km/h (0 Bft)
09.08.2022 02:42 21,8 C 12,9 C 0,0 C 20,6 C 56 % 84 % 53 % 1023,1 hPa 0,0 l/m 0,0 km/h (0 Bft) W-NW 292 10,3 C 12,9 C 0,0 km/h (0 Bft)
09.08.2022 02:40 21,8 C 12,9 C 0,0 C 20,6 C 56 % 84 % 53 % 1023,1 hPa 0,0 l/m 0,0 km/h (0 Bft) NW 315 10,3 C 12,9 C 0,0 km/h (0 Bft)
09.08.2022 02:38 21,8 C 12,9 C 0,0 C 20,6 C 56 % 84 % 53 % 1023,1 hPa 0,0 l/m 0,0 km/h (0 Bft) NW 315 10,3 C 12,9 C 0,0 km/h (0 Bft)
09.08.2022 02:36 21,8 C 12,9 C 0,0 C 20,6 C 56 % 84 % 53 % 1023,1 hPa 0,0 l/m 0,0 km/h (0 Bft) NW 315 10,3 C 12,9 C 0,0 km/h (0 Bft)
09.08.2022 02:34 21,8 C 12,9 C 0,0 C 20,6 C 56 % 84 % 53 % 1023,1 hPa 0,0 l/m 0,0 km/h (0 Bft) NW 315 10,3 C 12,9 C 0,0 km/h (0 Bft)
09.08.2022 02:32 21,9 C 12,9 C 0,0 C 20,6 C 56 % 84 % 53 % 1023,1 hPa 0,0 l/m 0,0 km/h (0 Bft) W 270 10,3 C 12,9 C 0,0 km/h (0 Bft)
09.08.2022 02:30 21,9 C 12,9 C 0,0 C 20,6 C 56 % 84 % 53 % 1023,1 hPa 0,0 l/m 0,0 km/h (0 Bft) N-NW 337 10,3 C 12,9 C 0,0 km/h (0 Bft)
09.08.2022 02:28 21,9 C 12,9 C 0,0 C 20,6 C 56 % 84 % 53 % 1023,3 hPa 0,0 l/m 0,0 km/h (0 Bft) NW 315 10,3 C 12,9 C 0,0 km/h (0 Bft)
09.08.2022 02:26 21,9 C 12,9 C 0,0 C 20,6 C 56 % 84 % 53 % 1023,3 hPa 0,0 l/m 0,0 km/h (0 Bft) N-NO 22 10,3 C 12,9 C 0,0 km/h (0 Bft)
09.08.2022 02:24 21,9 C 12,9 C 0,0 C 20,6 C 56 % 84 % 53 % 1023,3 hPa 0,0 l/m 0,0 km/h (0 Bft) NW 315 10,3 C 12,9 C 0,0 km/h (0 Bft)
09.08.2022 02:22 21,9 C 13,0 C 0,0 C 20,6 C 56 % 83 % 53 % 1023,3 hPa 0,0 l/m 0,0 km/h (0 Bft) NW 315 10,2 C 13,0 C 0,0 km/h (0 Bft)
09.08.2022 02:20 21,9 C 13,1 C 0,0 C 20,6 C 56 % 83 % 53 % 1023,3 hPa 0,0 l/m 0,0 km/h (0 Bft) NW 315 10,3 C 13,1 C 0,0 km/h (0 Bft)
09.08.2022 02:18 22,0 C 13,1 C 0,0 C 20,6 C 56 % 83 % 53 % 1023,3 hPa 0,0 l/m 0,0 km/h (0 Bft) NW 315 10,3 C 13,1 C 0,0 km/h (0 Bft)
09.08.2022 02:16 22,0 C 13,1 C 0,0 C 20,6 C 56 % 83 % 53 % 1023,3 hPa 0,0 l/m 0,0 km/h (0 Bft) W-NW 292 10,3 C 13,1 C 0,0 km/h (0 Bft)
09.08.2022 02:14 22,0 C 13,1 C 0,0 C 20,7 C 56 % 83 % 53 % 1023,3 hPa 0,0 l/m 0,0 km/h (0 Bft) NW 315 10,3 C 13,1 C 0,0 km/h (0 Bft)
09.08.2022 02:12 22,0 C 13,1 C 0,0 C 20,7 C 56 % 83 % 53 % 1023,3 hPa 0,0 l/m 0,0 km/h (0 Bft) N-NW 337 10,3 C 13,1 C 0,0 km/h (0 Bft)
09.08.2022 02:08 22,0 C 13,1 C 0,0 C 20,7 C 56 % 83 % 53 % 1023,2 hPa 0,0 l/m 0,0 km/h (0 Bft) NW 315 10,3 C 13,1 C 0,0 km/h (0 Bft)
09.08.2022 02:06 22,0 C 13,1 C 0,0 C 20,7 C 56 % 83 % 53 % 1023,2 hPa 0,0 l/m 0,0 km/h (0 Bft) NW 315 10,3 C 13,1 C 0,0 km/h (0 Bft)
09.08.2022 02:04 22,0 C 13,2 C 0,0 C 20,7 C 56 % 83 % 53 % 1023,2 hPa 0,0 l/m 0,0 km/h (0 Bft) N-NW 337 10,4 C 13,2 C 0,0 km/h (0 Bft)
09.08.2022 02:02 22,0 C 13,2 C 0,0 C 20,7 C 56 % 83 % 53 % 1023,2 hPa 0,0 l/m 0,0 km/h (0 Bft) N-NW 337 10,4 C 13,2 C 0,0 km/h (0 Bft)
09.08.2022 02:00 22,0 C 13,2 C 0,0 C 20,7 C 56 % 83 % 53 % 1023,2 hPa 0,0 l/m 0,0 km/h (0 Bft) N 360 10,4 C 13,2 C 0,0 km/h (0 Bft)
09.08.2022 01:58 22,1 C 13,2 C 0,0 C 20,7 C 56 % 83 % 53 % 1023,2 hPa 0,0 l/m 0,0 km/h (0 Bft) W 270 10,4 C 13,2 C 0,0 km/h (0 Bft)
09.08.2022 01:56 22,1 C 13,3 C 0,0 C 20,7 C 56 % 83 % 53 % 1023,2 hPa 0,0 l/m 0,0 km/h (0 Bft) NW 315 10,5 C 13,3 C 0,0 km/h (0 Bft)
09.08.2022 01:54 22,1 C 13,3 C 0,0 C 20,7 C 56 % 83 % 53 % 1023,2 hPa 0,0 l/m 0,0 km/h (0 Bft) NW 315 10,5 C 13,3 C 0,0 km/h (0 Bft)
09.08.2022 01:52 22,1 C 13,3 C 0,0 C 20,7 C 56 % 83 % 53 % 1023,2 hPa 0,0 l/m 0,0 km/h (0 Bft) NO 45 10,5 C 13,3 C 0,0 km/h (0 Bft)
09.08.2022 01:50 22,1 C 13,3 C 0,0 C 20,7 C 56 % 83 % 53 % 1023,2 hPa 0,0 l/m 0,0 km/h (0 Bft) N-NW 337 10,5 C 13,3 C 0,0 km/h (0 Bft)
09.08.2022 01:48 22,1 C 13,3 C 0,0 C 20,7 C 56 % 83 % 53 % 1023,6 hPa 0,0 l/m 0,0 km/h (0 Bft) N-NW 337 10,5 C 13,3 C 0,0 km/h (0 Bft)
09.08.2022 01:46 22,1 C 13,3 C 0,0 C 20,7 C 56 % 83 % 53 % 1023,6 hPa 0,0 l/m 0,0 km/h (0 Bft) NW 315 10,5 C 13,3 C 0,0 km/h (0 Bft)
09.08.2022 01:44 22,2 C 13,3 C 0,0 C 20,7 C 56 % 82 % 53 % 1023,6 hPa 0,0 l/m 0,0 km/h (0 Bft) NW 315 10,3 C 13,3 C 0,0 km/h (0 Bft)
09.08.2022 01:42 22,2 C 13,4 C 0,0 C 20,7 C 56 % 82 % 53 % 1023,6 hPa 0,0 l/m 0,0 km/h (0 Bft) NW 315 10,4 C 13,4 C 0,0 km/h (0 Bft)
09.08.2022 01:40 22,2 C 13,4 C 0,0 C 20,7 C 56 % 82 % 53 % 1023,6 hPa 0,0 l/m 0,0 km/h (0 Bft) NW 315 10,4 C 13,4 C 0,0 km/h (0 Bft)
09.08.2022 01:38 22,2 C 13,4 C 0,0 C 20,7 C 56 % 82 % 53 % 1023,6 hPa 0,0 l/m 0,0 km/h (0 Bft) NW 315 10,4 C 13,4 C 0,0 km/h (0 Bft)
09.08.2022 01:36 22,2 C 13,4 C 0,0 C 20,7 C 56 % 82 % 53 % 1023,6 hPa 0,0 l/m 0,0 km/h (0 Bft) NW 315 10,4 C 13,4 C 0,0 km/h (0 Bft)
09.08.2022 01:34 22,2 C 13,4 C 0,0 C 20,7 C 56 % 82 % 53 % 1023,6 hPa 0,0 l/m 0,0 km/h (0 Bft) NW 315 10,4 C 13,4 C 0,0 km/h (0 Bft)
09.08.2022 01:32 22,2 C 13,4 C 0,0 C 20,8 C 56 % 82 % 53 % 1023,6 hPa 0,0 l/m 0,0 km/h (0 Bft) NW 315 10,4 C 13,4 C 0,0 km/h (0 Bft)
09.08.2022 01:30 22,2 C 13,4 C 0,0 C 20,8 C 56 % 82 % 53 % 1023,6 hPa 0,0 l/m 0,0 km/h (0 Bft) NW 315 10,4 C 13,4 C 0,0 km/h (0 Bft)
09.08.2022 01:28 22,2 C 13,5 C 0,0 C 20,8 C 56 % 82 % 53 % 1023,4 hPa 0,0 l/m 0,0 km/h (0 Bft) NW 315 10,5 C 13,5 C 0,0 km/h (0 Bft)
09.08.2022 01:26 22,3 C 13,5 C 0,0 C 20,8 C 56 % 82 % 53 % 1023,4 hPa 0,0 l/m 0,0 km/h (0 Bft) NW 315 10,5 C 13,5 C 0,0 km/h (0 Bft)
09.08.2022 01:24 22,3 C 13,5 C 0,0 C 20,8 C 56 % 82 % 53 % 1023,4 hPa 0,0 l/m 0,0 km/h (0 Bft) NW 315 10,5 C 13,5 C 0,0 km/h (0 Bft)
09.08.2022 01:22 22,3 C 13,5 C 0,0 C 20,8 C 56 % 82 % 53 % 1023,4 hPa 0,0 l/m 0,0 km/h (0 Bft) NW 315 10,5 C 13,5 C 0,0 km/h (0 Bft)
09.08.2022 01:20 22,2 C 13,6 C 0,0 C 20,8 C 56 % 82 % 53 % 1023,4 hPa 0,0 l/m 0,0 km/h (0 Bft) W-NW 292 10,6 C 13,6 C 0,0 km/h (0 Bft)
09.08.2022 01:18 22,2 C 13,6 C 0,0 C 20,8 C 56 % 82 % 53 % 1023,4 hPa 0,0 l/m 0,0 km/h (0 Bft) NW 315 10,6 C 13,6 C 0,0 km/h (0 Bft)
09.08.2022 01:16 22,4 C 13,6 C 0,0 C 20,8 C 56 % 82 % 53 % 1023,4 hPa 0,0 l/m 0,0 km/h (0 Bft) NW 315 10,6 C 13,6 C 0,0 km/h (0 Bft)
09.08.2022 01:14 22,2 C 13,6 C 0,0 C 20,8 C 56 % 82 % 53 % 1023,4 hPa 0,0 l/m 0,0 km/h (0 Bft) NW 315 10,6 C 13,6 C 0,0 km/h (0 Bft)
09.08.2022 01:12 22,4 C 13,7 C 0,0 C 20,8 C 56 % 81 % 53 % 1023,4 hPa 0,0 l/m 0,0 km/h (0 Bft) N-NW 337 10,5 C 13,7 C 0,0 km/h (0 Bft)
09.08.2022 01:10 22,4 C 13,7 C 0,0 C 20,8 C 56 % 81 % 53 % 1023,4 hPa 0,0 l/m 0,0 km/h (0 Bft) N-NW 337 10,5 C 13,7 C 0,0 km/h (0 Bft)
09.08.2022 01:08 22,4 C 13,7 C 0,0 C 20,8 C 56 % 81 % 53 % 1023,6 hPa 0,0 l/m 0,0 km/h (0 Bft) NW 315 10,5 C 13,7 C 0,0 km/h (0 Bft)
09.08.2022 01:06 22,4 C 13,7 C 0,0 C 20,8 C 56 % 81 % 53 % 1023,6 hPa 0,0 l/m 0,0 km/h (0 Bft) NW 315 10,5 C 13,7 C 0,0 km/h (0 Bft)
09.08.2022 01:04 22,4 C 13,7 C 0,0 C 20,8 C 56 % 81 % 53 % 1023,6 hPa 0,0 l/m 0,0 km/h (0 Bft) NW 315 10,5 C 13,7 C 0,0 km/h (0 Bft)
09.08.2022 01:02 22,4 C 13,7 C 0,0 C 20,8 C 56 % 81 % 53 % 1023,6 hPa 0,0 l/m 0,0 km/h (0 Bft) NW 315 10,5 C 13,7 C 0,0 km/h (0 Bft)
09.08.2022 01:00 22,4 C 13,7 C 0,0 C 20,8 C 56 % 81 % 53 % 1023,6 hPa 0,0 l/m 0,0 km/h (0 Bft) NW 315 10,5 C 13,7 C 0,0 km/h (0 Bft)
09.08.2022 00:58 22,4 C 13,7 C 0,0 C 20,8 C 56 % 81 % 53 % 1023,6 hPa 0,0 l/m 0,0 km/h (0 Bft) O-NO 67 10,5 C 13,7 C 0,0 km/h (0 Bft)
09.08.2022 00:56 22,4 C 13,7 C 0,0 C 20,8 C 56 % 81 % 53 % 1023,6 hPa 0,0 l/m 0,0 km/h (0 Bft) W-SW 247 10,5 C 13,7 C 0,0 km/h (0 Bft)
09.08.2022 00:54 22,4 C 13,7 C 0,0 C 20,8 C 56 % 81 % 53 % 1023,6 hPa 0,0 l/m 0,0 km/h (0 Bft) NW 315 10,5 C 13,7 C 0,0 km/h (0 Bft)
09.08.2022 00:52 22,5 C 13,7 C 0,0 C 20,8 C 56 % 81 % 53 % 1023,6 hPa 0,0 l/m 0,0 km/h (0 Bft) N-NO 22 10,5 C 13,7 C 0,0 km/h (0 Bft)
09.08.2022 00:50 22,5 C 13,7 C 0,0 C 20,8 C 56 % 81 % 53 % 1023,6 hPa 0,0 l/m 0,0 km/h (0 Bft) N-NW 337 10,5 C 13,7 C 0,0 km/h (0 Bft)
09.08.2022 00:48 22,5 C 13,8 C 0,0 C 20,8 C 56 % 80 % 53 % 1023,4 hPa 0,0 l/m 0,0 km/h (0 Bft) S 180 10,4 C 13,8 C 0,0 km/h (0 Bft)
09.08.2022 00:46 22,5 C 13,8 C 0,0 C 20,8 C 56 % 80 % 53 % 1023,4 hPa 0,0 l/m 0,0 km/h (0 Bft) W-NW 292 10,4 C 13,8 C 0,0 km/h (0 Bft)
09.08.2022 00:44 22,5 C 13,8 C 0,0 C 20,8 C 56 % 80 % 53 % 1023,4 hPa 0,0 l/m 0,0 km/h (0 Bft) W-SW 247 10,4 C 13,8 C 0,0 km/h (0 Bft)
09.08.2022 00:42 22,6 C 13,8 C 0,0 C 20,8 C 56 % 80 % 53 % 1023,4 hPa 0,0 l/m 0,0 km/h (0 Bft) N-NW 337 10,4 C 13,8 C 0,0 km/h (0 Bft)
09.08.2022 00:40 22,6 C 13,8 C 0,0 C 20,8 C 56 % 80 % 53 % 1023,4 hPa 0,0 l/m 0,0 km/h (0 Bft) NW 315 10,4 C 13,8 C 0,0 km/h (0 Bft)
09.08.2022 00:38 22,6 C 13,8 C 0,0 C 20,8 C 56 % 80 % 53 % 1023,4 hPa 0,0 l/m 0,0 km/h (0 Bft) N-NW 337 10,4 C 13,8 C 0,0 km/h (0 Bft)
09.08.2022 00:36 22,6 C 13,8 C 0,0 C 20,9 C 56 % 80 % 53 % 1023,4 hPa 0,0 l/m 0,0 km/h (0 Bft) W-NW 292 10,4 C 13,8 C 0,0 km/h (0 Bft)
09.08.2022 00:34 22,6 C 13,8 C 0,0 C 20,9 C 56 % 80 % 53 % 1023,4 hPa 0,0 l/m 0,0 km/h (0 Bft) W 270 10,4 C 13,8 C 0,0 km/h (0 Bft)
09.08.2022 00:32 22,6 C 13,9 C 0,0 C 20,9 C 56 % 80 % 53 % 1023,4 hPa 0,0 l/m 0,0 km/h (0 Bft) W-NW 292 10,5 C 13,9 C 0,0 km/h (0 Bft)
09.08.2022 00:30 22,6 C 13,9 C 0,0 C 20,9 C 56 % 80 % 53 % 1023,4 hPa 0,0 l/m 0,0 km/h (0 Bft) W-NW 292 10,5 C 13,9 C 0,0 km/h (0 Bft)
09.08.2022 00:28 22,6 C 13,9 C 0,0 C 20,9 C 56 % 80 % 53 % 1023,6 hPa 0,0 l/m 0,0 km/h (0 Bft) NW 315 10,5 C 13,9 C 0,0 km/h (0 Bft)
09.08.2022 00:26 22,6 C 13,9 C 0,0 C 20,9 C 56 % 79 % 53 % 1023,6 hPa 0,0 l/m 0,0 km/h (0 Bft) NW 315 10,3 C 13,9 C 0,0 km/h (0 Bft)
09.08.2022 00:24 22,6 C 13,9 C 0,0 C 20,9 C 56 % 79 % 53 % 1023,6 hPa 0,0 l/m 0,0 km/h (0 Bft) NW 315 10,3 C 13,9 C 0,0 km/h (0 Bft)
09.08.2022 00:22 22,7 C 14,0 C 0,0 C 20,9 C 56 % 79 % 53 % 1023,6 hPa 0,0 l/m 0,0 km/h (0 Bft) NW 315 10,4 C 14,0 C 0,0 km/h (0 Bft)
09.08.2022 00:20 22,7 C 14,0 C 0,0 C 20,9 C 56 % 79 % 53 % 1023,6 hPa 0,0 l/m 0,0 km/h (0 Bft) NW 315 10,4 C 14,0 C 0,0 km/h (0 Bft)
09.08.2022 00:18 22,7 C 14,0 C 0,0 C 20,9 C 56 % 79 % 53 % 1023,6 hPa 0,0 l/m 0,0 km/h (0 Bft) NW 315 10,4 C 14,0 C 0,0 km/h (0 Bft)
09.08.2022 00:16 22,7 C 14,1 C 0,0 C 20,9 C 56 % 79 % 53 % 1023,6 hPa 0,0 l/m 0,0 km/h (0 Bft) N-NW 337 10,5 C 14,1 C 0,0 km/h (0 Bft)
09.08.2022 00:14 22,7 C 14,1 C 0,0 C 20,9 C 56 % 79 % 53 % 1023,6 hPa 0,0 l/m 0,0 km/h (0 Bft) NW 315 10,5 C 14,1 C 0,0 km/h (0 Bft)
09.08.2022 00:12 22,7 C 14,1 C 0,0 C 20,9 C 56 % 79 % 53 % 1023,6 hPa 0,0 l/m 0,0 km/h (0 Bft) NW 315 10,5 C 14,1 C 0,0 km/h (0 Bft)
09.08.2022 00:10 22,8 C 14,3 C 0,0 C 20,9 C 56 % 78 % 53 % 1023,6 hPa 0,0 l/m 0,0 km/h (0 Bft) NW 315 10,5 C 14,3 C 0,0 km/h (0 Bft)
09.08.2022 00:08 22,8 C 14,3 C 0,0 C 20,9 C 56 % 78 % 53 % 1023,7 hPa 0,0 l/m 0,0 km/h (0 Bft) NW 315 10,5 C 14,3 C 0,0 km/h (0 Bft)
09.08.2022 00:06 22,8 C 14,3 C 0,0 C 20,9 C 56 % 78 % 53 % 1023,7 hPa 0,0 l/m 0,0 km/h (0 Bft) NW 315 10,5 C 14,3 C 0,0 km/h (0 Bft)
09.08.2022 00:04 22,8 C 14,3 C 0,0 C 20,9 C 56 % 78 % 53 % 1023,7 hPa 0,0 l/m 0,0 km/h (0 Bft) NW 315 10,5 C 14,3 C 0,0 km/h (0 Bft)
09.08.2022 00:02 22,8 C 14,3 C 0,0 C 20,9 C 56 % 78 % 53 % 1023,7 hPa 0,0 l/m 0,0 km/h (0 Bft) NW 315 10,5 C 14,3 C 0,0 km/h (0 Bft)
09.08.2022 00:00 22,8 C 14,3 C 0,0 C 20,9 C 56 % 78 % 53 % 1023,7 hPa 0,0 l/m 0,0 km/h (0 Bft) NW 315 10,5 C 14,3 C 0,0 km/h (0 Bft)
_ Min-Zeit 06:54 05:28 17:19 06:40 21:19 15:42 16:46 05:10 - 00:00 - - 05:28 05:28 00:00
Minimum _ 20,2 C 11,7 C -0,6 C 19,5 C 53 % 45 % 49 % 1022,6 hPa - 0,0 km/h (0 Bft) - - 9,6 C 11,7 C 0,0 km/h (0 Bft)
_ Max-Zeit 18:19 14:44 00:00 17:19 08:04 06:54 05:50 21:35 00:00 12:38 - - 10:50 14:44 12:12
Maximum _ 25,6 C 27,0 C 0,0 C 23,6 C 58 % 89 % 54 % 1025,7 hPa 0,0 l/m 4,2 km/h
W-SW (1 Bft)
- - 16,3 C 27,0 C 15,7 km/h
N-NW (3 Bft)
Durchschnitt _ 23,1 C 19,1 C -0,1 C 21,1 C 56 % 68 % 52 % 1024,0 hPa #0,0 l/m 1,2 km/h (1 Bft) W-SW - 12,5 C 19,1 C 3,1 km/h (1 Bft)